Wetterdaten: Donnerstag, 12.03.2020
Datum Zeit Temp. Aussen Temp. o. S. Temp +5cm Feuchte Auss Luftdruck Regen Sonnenschein Regendauer Solar Windben Empfang
12.03.2020 00:00 13,5 C 12,8 C 11,7 C 86 % 1008,5 hPa 0,0 l/m 0 min 0 min 0 W/m 35,4 km/h (5 Bft) 95,74 %
12.03.2020 00:02 13,5 C 12,8 C 11,7 C 86 % 1008,4 hPa 0,0 l/m 0 min 0 min 0 W/m 29,0 km/h (5 Bft) 92,50 %
12.03.2020 00:04 13,5 C 12,8 C 11,7 C 86 % 1008,4 hPa 0,0 l/m 0 min 0 min 0 W/m 25,7 km/h (4 Bft) 95,65 %
12.03.2020 00:08 13,4 C 12,8 C 12,2 C 86 % 1008,4 hPa 0,0 l/m 0 min 0 min 0 W/m 48,3 km/h (6 Bft) 93,62 %
12.03.2020 00:10 13,4 C 12,8 C 11,7 C 86 % 1008,5 hPa 0,0 l/m 0 min 0 min 0 W/m 29,0 km/h (5 Bft) 95,74 %
12.03.2020 00:12 13,4 C 12,8 C 12,2 C 85 % 1008,1 hPa 0,0 l/m 0 min 0 min 0 W/m 25,7 km/h (4 Bft) 95,74 %
12.03.2020 00:14 13,4 C 12,8 C 12,2 C 85 % 1008,2 hPa 0,0 l/m 0 min 0 min 0 W/m 22,5 km/h (4 Bft) 95,74 %
12.03.2020 00:16 13,4 C 12,8 C 11,7 C 85 % 1008,3 hPa 0,0 l/m 0 min 0 min 0 W/m 38,6 km/h (5 Bft) 97,83 %
12.03.2020 00:18 13,4 C 12,8 C 12,2 C 85 % 1008,7 hPa 0,0 l/m 0 min 0 min 0 W/m 32,2 km/h (5 Bft) 97,87 %
12.03.2020 00:20 13,4 C 12,8 C 12,2 C 85 % 1008,5 hPa 0,0 l/m 0 min 0 min 0 W/m 45,1 km/h (6 Bft) 97,83 %
12.03.2020 00:22 13,5 C 12,8 C 12,2 C 85 % 1008,4 hPa 0,0 l/m 0 min 0 min 0 W/m 38,6 km/h (5 Bft) 97,87 %
12.03.2020 00:24 13,5 C 12,8 C 12,2 C 85 % 1008,5 hPa 0,0 l/m 0 min 0 min 0 W/m 45,1 km/h (6 Bft) 95,74 %
12.03.2020 00:26 13,5 C 12,8 C 12,2 C 85 % 1008,3 hPa 0,0 l/m 0 min 0 min 0 W/m 29,0 km/h (5 Bft) 97,87 %
12.03.2020 00:28 13,5 C 12,8 C 12,2 C 85 % 1008,2 hPa 0,0 l/m 0 min 0 min 0 W/m 22,5 km/h (4 Bft) 97,83 %
12.03.2020 00:30 13,5 C 12,8 C 11,7 C 85 % 1008,3 hPa 0,0 l/m 0 min 0 min 0 W/m 61,2 km/h (7 Bft) 97,87 %
12.03.2020 00:32 13,5 C 12,8 C 11,7 C 85 % 1008,5 hPa 0,0 l/m 0 min 0 min 0 W/m 38,6 km/h (5 Bft) 95,74 %
12.03.2020 00:34 13,6 C 12,8 C 11,7 C 85 % 1008,0 hPa 0,0 l/m 0 min 0 min 0 W/m 48,3 km/h (6 Bft) 97,87 %
12.03.2020 00:36 13,6 C 12,8 C 11,7 C 85 % 1008,3 hPa 0,0 l/m 0 min 0 min 0 W/m 51,5 km/h (7 Bft) 97,87 %
12.03.2020 00:38 13,6 C 12,8 C 12,2 C 85 % 1008,2 hPa 0,0 l/m 0 min 0 min 0 W/m 41,8 km/h (6 Bft) 100,00 %
12.03.2020 00:40 13,6 C 12,8 C 12,2 C 85 % 1008,1 hPa 0,0 l/m 0 min 0 min 0 W/m 38,6 km/h (5 Bft) 100,00 %
12.03.2020 00:42 13,6 C 12,8 C 12,2 C 85 % 1008,3 hPa 0,0 l/m 0 min 0 min 0 W/m 35,4 km/h (5 Bft) 100,00 %
12.03.2020 00:44 13,6 C 12,8 C 12,2 C 85 % 1008,1 hPa 0,0 l/m 0 min 0 min 0 W/m 57,9 km/h (7 Bft) 97,87 %
12.03.2020 00:46 13,6 C 12,8 C 12,2 C 85 % 1008,2 hPa 0,0 l/m 0 min 0 min 0 W/m 32,2 km/h (5 Bft) 100,00 %
12.03.2020 00:48 13,6 C 12,8 C 12,2 C 85 % 1008,1 hPa 0,0 l/m 0 min 0 min 0 W/m 32,2 km/h (5 Bft) 100,00 %
12.03.2020 00:50 13,6 C 12,8 C 12,2 C 85 % 1008,1 hPa 0,0 l/m 0 min 0 min 0 W/m 45,1 km/h (6 Bft) 100,00 %
12.03.2020 00:52 13,6 C 12,8 C 12,2 C 85 % 1008,1 hPa 0,0 l/m 0 min 0 min 0 W/m 45,1 km/h (6 Bft) 100,00 %
12.03.2020 00:54 13,6 C 12,8 C 12,2 C 85 % 1008,1 hPa 0,0 l/m 0 min 0 min 0 W/m 64,4 km/h (8 Bft) 97,87 %
12.03.2020 00:56 13,6 C 12,8 C 12,2 C 85 % 1008,1 hPa 0,0 l/m 0 min 0 min 0 W/m 35,4 km/h (5 Bft) 100,00 %
12.03.2020 00:58 13,6 C 12,8 C 12,2 C 85 % 1008,1 hPa 0,0 l/m 0 min 0 min 0 W/m 38,6 km/h (5 Bft) 100,00 %
12.03.2020 01:00 13,6 C 12,8 C 12,2 C 85 % 1008,1 hPa 0,0 l/m 0 min 0 min 0 W/m 32,2 km/h (5 Bft) 100,00 %
12.03.2020 01:02 13,6 C 12,8 C 12,2 C 85 % 1008,1 hPa 0,0 l/m 0 min 0 min 0 W/m 38,6 km/h (5 Bft) 100,00 %
12.03.2020 01:04 13,6 C 12,8 C 12,2 C 85 % 1008,0 hPa 0,0 l/m 0 min 0 min 0 W/m 54,7 km/h (7 Bft) 100,00 %
12.03.2020 01:06 13,6 C 12,8 C 12,2 C 85 % 1008,1 hPa 0,0 l/m 0 min 2 min 0 W/m 25,7 km/h (4 Bft) 100,00 %
12.03.2020 01:08 13,6 C 12,8 C 11,7 C 85 % 1008,0 hPa 0,0 l/m 0 min 2 min 0 W/m 29,0 km/h (5 Bft) 100,00 %
12.03.2020 01:10 13,6 C 12,8 C 11,7 C 85 % 1008,0 hPa 0,0 l/m 0 min 2 min 0 W/m 25,7 km/h (4 Bft) 100,00 %
12.03.2020 01:12 13,6 C 12,8 C 11,7 C 85 % 1007,9 hPa 0,0 l/m 0 min 0 min 0 W/m 41,8 km/h (6 Bft) 100,00 %
12.03.2020 01:14 13,6 C 12,8 C 12,2 C 85 % 1008,0 hPa 0,0 l/m 0 min 0 min 0 W/m 25,7 km/h (4 Bft) 97,83 %
12.03.2020 01:16 13,6 C 12,8 C 12,2 C 85 % 1007,9 hPa 0,0 l/m 0 min 0 min 0 W/m 29,0 km/h (5 Bft) 97,87 %
12.03.2020 01:18 13,6 C 12,8 C 12,2 C 85 % 1007,9 hPa 0,0 l/m 0 min 0 min 0 W/m 48,3 km/h (6 Bft) 100,00 %
12.03.2020 01:20 13,6 C 12,8 C 12,2 C 85 % 1007,8 hPa 0,0 l/m 0 min 2 min 0 W/m 29,0 km/h (5 Bft) 100,00 %
12.03.2020 01:22 13,6 C 12,8 C 11,7 C 85 % 1007,8 hPa 0,0 l/m 0 min 2 min 0 W/m 38,6 km/h (5 Bft) 97,87 %
12.03.2020 01:24 13,6 C 12,8 C 11,7 C 85 % 1008,0 hPa 0,0 l/m 0 min 2 min 0 W/m 41,8 km/h (6 Bft) 97,87 %
12.03.2020 01:26 13,6 C 12,8 C 12,2 C 85 % 1007,9 hPa 0,0 l/m 0 min 2 min 0 W/m 29,0 km/h (5 Bft) 97,83 %
12.03.2020 01:28 13,6 C 12,8 C 11,7 C 85 % 1007,8 hPa 0,0 l/m 0 min 2 min 0 W/m 32,2 km/h (5 Bft) 100,00 %
12.03.2020 01:30 13,6 C 12,2 C 11,7 C 85 % 1007,9 hPa 0,0 l/m 0 min 2 min 0 W/m 35,4 km/h (5 Bft) 97,87 %
12.03.2020 01:32 13,6 C 12,2 C 11,7 C 85 % 1007,8 hPa 0,0 l/m 0 min 2 min 0 W/m 38,6 km/h (5 Bft) 97,87 %
12.03.2020 01:34 13,6 C 12,2 C 11,7 C 85 % 1007,9 hPa 0,0 l/m 0 min 2 min 0 W/m 35,4 km/h (5 Bft) 95,74 %
12.03.2020 01:36 13,6 C 12,2 C 11,7 C 85 % 1007,8 hPa 0,0 l/m 0 min 2 min 0 W/m 32,2 km/h (5 Bft) 97,87 %
12.03.2020 01:38 13,6 C 12,2 C 11,7 C 85 % 1007,9 hPa 0,0 l/m 0 min 2 min 0 W/m 38,6 km/h (5 Bft) 97,83 %
12.03.2020 01:40 13,5 C 12,2 C 11,7 C 86 % 1008,0 hPa 0,0 l/m 0 min 2 min 0 W/m 38,6 km/h (5 Bft) 97,87 %
12.03.2020 01:42 13,5 C 12,2 C 11,7 C 86 % 1007,8 hPa 0,0 l/m 0 min 0 min 0 W/m 19,3 km/h (3 Bft) 95,74 %
12.03.2020 01:44 13,4 C 12,2 C 11,7 C 86 % 1007,9 hPa 0,0 l/m 0 min 2 min 0 W/m 35,4 km/h (5 Bft) 95,74 %
12.03.2020 01:46 13,4 C 12,2 C 11,1 C 86 % 1007,8 hPa 0,0 l/m 0 min 2 min 0 W/m 22,5 km/h (4 Bft) 97,87 %
12.03.2020 01:48 13,4 C 12,2 C 11,7 C 86 % 1007,6 hPa 0,0 l/m 0 min 0 min 0 W/m 29,0 km/h (5 Bft) 97,83 %
12.03.2020 01:50 13,3 C 12,2 C 11,7 C 86 % 1007,8 hPa 0,0 l/m 0 min 0 min 0 W/m 25,7 km/h (4 Bft) 97,87 %
12.03.2020 01:52 13,3 C 12,2 C 11,7 C 87 % 1007,7 hPa 0,0 l/m 0 min 0 min 0 W/m 41,8 km/h (6 Bft) 97,87 %
12.03.2020 01:54 13,3 C 12,2 C 11,7 C 87 % 1007,8 hPa 0,0 l/m 0 min 0 min 0 W/m 22,5 km/h (4 Bft) 97,87 %
12.03.2020 01:56 13,3 C 12,2 C 11,7 C 87 % 1007,7 hPa 0,0 l/m 0 min 0 min 0 W/m 22,5 km/h (4 Bft) 95,74 %
12.03.2020 01:58 13,2 C 12,2 C 11,7 C 87 % 1007,7 hPa 0,0 l/m 0 min 0 min 0 W/m 25,7 km/h (4 Bft) 97,87 %
12.03.2020 02:00 13,2 C 12,2 C 11,7 C 87 % 1007,8 hPa 0,0 l/m 0 min 0 min 0 W/m 45,1 km/h (6 Bft) 95,65 %
12.03.2020 02:02 13,2 C 12,2 C 11,7 C 87 % 1007,7 hPa 0,0 l/m 0 min 0 min 0 W/m 35,4 km/h (5 Bft) 95,74 %
12.03.2020 02:04 13,2 C 12,2 C 11,7 C 87 % 1007,8 hPa 0,0 l/m 0 min 0 min 0 W/m 45,1 km/h (6 Bft) 97,87 %
12.03.2020 02:06 13,2 C 12,2 C 11,7 C 86 % 1007,6 hPa 0,0 l/m 0 min 0 min 0 W/m 45,1 km/h (6 Bft) 95,74 %
12.03.2020 02:08 13,2 C 12,2 C 11,7 C 86 % 1007,7 hPa 0,0 l/m 0 min 0 min 0 W/m 29,0 km/h (5 Bft) 93,62 %
12.03.2020 02:10 13,2 C 12,2 C 11,7 C 86 % 1007,9 hPa 0,0 l/m 0 min 0 min 0 W/m 41,8 km/h (6 Bft) 95,74 %
12.03.2020 02:12 13,2 C 12,2 C 11,7 C 86 % 1007,6 hPa 0,0 l/m 0 min 0 min 0 W/m 41,8 km/h (6 Bft) 95,65 %
12.03.2020 02:14 13,2 C 12,2 C 11,7 C 86 % 1007,8 hPa 0,0 l/m 0 min 0 min 0 W/m 45,1 km/h (6 Bft) 93,62 %
12.03.2020 02:16 13,2 C 12,2 C 11,7 C 86 % 1007,5 hPa 0,0 l/m 0 min 0 min 0 W/m 29,0 km/h (5 Bft) 95,74 %
12.03.2020 02:18 13,2 C 12,2 C 11,7 C 86 % 1007,5 hPa 0,0 l/m 0 min 0 min 0 W/m 45,1 km/h (6 Bft) 95,74 %
12.03.2020 02:20 13,2 C 12,8 C 11,7 C 86 % 1007,5 hPa 0,0 l/m 0 min 0 min 0 W/m 51,5 km/h (7 Bft) 93,62 %
12.03.2020 02:22 13,2 C 12,2 C 11,7 C 86 % 1007,2 hPa 0,0 l/m 0 min 0 min 0 W/m 22,5 km/h (4 Bft) 97,87 %
12.03.2020 02:24 13,2 C 12,2 C 11,7 C 86 % 1007,5 hPa 0,0 l/m 0 min 0 min 0 W/m 25,7 km/h (4 Bft) 97,83 %
12.03.2020 02:26 13,2 C 12,2 C 11,7 C 86 % 1007,5 hPa 0,0 l/m 0 min 0 min 0 W/m 51,5 km/h (7 Bft) 95,74 %
12.03.2020 02:28 13,2 C 12,2 C 11,7 C 86 % 1007,4 hPa 0,0 l/m 0 min 0 min 0 W/m 45,1 km/h (6 Bft) 97,87 %
12.03.2020 02:30 13,2 C 12,2 C 11,7 C 86 % 1007,3 hPa 0,0 l/m 0 min 0 min 0 W/m 41,8 km/h (6 Bft) 97,87 %
12.03.2020 02:32 13,2 C 12,2 C 11,7 C 86 % 1007,3 hPa 0,0 l/m 0 min 0 min 0 W/m 29,0 km/h (5 Bft) 97,87 %
12.03.2020 02:34 13,1 C 12,2 C 11,7 C 86 % 1007,4 hPa 0,0 l/m 0 min 0 min 0 W/m 54,7 km/h (7 Bft) 97,87 %
12.03.2020 02:36 13,1 C 12,2 C 11,7 C 86 % 1007,1 hPa 0,0 l/m 0 min 0 min 0 W/m 25,7 km/h (4 Bft) 95,65 %
12.03.2020 02:38 13,1 C 12,2 C 11,7 C 87 % 1007,2 hPa 0,0 l/m 0 min 0 min 0 W/m 32,2 km/h (5 Bft) 97,87 %
12.03.2020 02:40 13,1 C 12,2 C 11,7 C 87 % 1007,0 hPa 0,0 l/m 0 min 0 min 0 W/m 38,6 km/h (5 Bft) 97,87 %
12.03.2020 02:42 13,1 C 12,2 C 11,7 C 87 % 1007,2 hPa 0,0 l/m 0 min 0 min 0 W/m 48,3 km/h (6 Bft) 95,74 %
12.03.2020 02:44 13,1 C 12,2 C 11,7 C 87 % 1007,1 hPa 0,0 l/m 0 min 0 min 0 W/m 22,5 km/h (4 Bft) 97,87 %
12.03.2020 02:46 13,1 C 12,2 C 11,7 C 87 % 1007,1 hPa 0,0 l/m 0 min 0 min 0 W/m 41,8 km/h (6 Bft) 97,83 %
12.03.2020 02:48 13,1 C 12,2 C 11,7 C 87 % 1007,2 hPa 0,0 l/m 0 min 0 min 0 W/m 35,4 km/h (5 Bft) 100,00 %
12.03.2020 02:50 13,0 C 12,2 C 11,7 C 87 % 1007,0 hPa 0,0 l/m 0 min 0 min 0 W/m 35,4 km/h (5 Bft) 97,87 %
12.03.2020 02:52 13,0 C 12,2 C 11,7 C 87 % 1007,2 hPa 0,0 l/m 0 min 0 min 0 W/m 45,1 km/h (6 Bft) 97,87 %
12.03.2020 02:54 13,0 C 12,2 C 11,7 C 86 % 1007,0 hPa 0,0 l/m 0 min 0 min 0 W/m 29,0 km/h (5 Bft) 100,00 %
12.03.2020 02:56 13,0 C 12,2 C 11,7 C 86 % 1007,0 hPa 0,0 l/m 0 min 0 min 0 W/m 25,7 km/h (4 Bft) 93,62 %
12.03.2020 02:58 13,0 C 12,2 C 11,7 C 86 % 1006,9 hPa 0,0 l/m 0 min 0 min 0 W/m 29,0 km/h (5 Bft) 97,87 %
12.03.2020 03:00 13,0 C 12,2 C 11,7 C 86 % 1006,8 hPa 0,0 l/m 0 min 0 min 0 W/m 41,8 km/h (6 Bft) 95,65 %
12.03.2020 03:02 13,0 C 12,2 C 11,7 C 86 % 1006,9 hPa 0,0 l/m 0 min 0 min 0 W/m 35,4 km/h (5 Bft) 97,87 %
12.03.2020 03:04 13,0 C 12,2 C 11,7 C 86 % 1006,8 hPa 0,0 l/m 0 min 0 min 0 W/m 38,6 km/h (5 Bft) 97,87 %
12.03.2020 03:06 13,0 C 12,2 C 11,7 C 86 % 1007,0 hPa 0,0 l/m 0 min 0 min 0 W/m 32,2 km/h (5 Bft) 97,87 %
12.03.2020 03:08 13,0 C 12,2 C 11,7 C 86 % 1006,9 hPa 0,0 l/m 0 min 0 min 0 W/m 45,1 km/h (6 Bft) 95,74 %
12.03.2020 03:10 13,0 C 12,2 C 11,7 C 85 % 1006,8 hPa 0,0 l/m 0 min 0 min 0 W/m 22,5 km/h (4 Bft) 95,65 %
12.03.2020 03:12 13,0 C 12,2 C 11,7 C 85 % 1006,8 hPa 0,0 l/m 0 min 0 min 0 W/m 29,0 km/h (5 Bft) 97,87 %
12.03.2020 03:14 13,0 C 11,7 C 11,1 C 86 % 1006,8 hPa 0,0 l/m 0 min 2 min 0 W/m 32,2 km/h (5 Bft) 97,87 %
12.03.2020 03:16 13,0 C 11,7 C 10,6 C 86 % 1006,7 hPa 0,0 l/m 0 min 2 min 0 W/m 25,7 km/h (4 Bft) 95,74 %
12.03.2020 03:18 13,0 C 11,7 C 10,6 C 86 % 1006,6 hPa 0,0 l/m 0 min 2 min 0 W/m 29,0 km/h (5 Bft) 97,87 %
12.03.2020 03:20 12,9 C 11,7 C 11,1 C 86 % 1006,7 hPa 0,0 l/m 0 min 2 min 0 W/m 25,7 km/h (4 Bft) 97,87 %
12.03.2020 03:22 12,9 C 11,7 C 11,1 C 86 % 1006,7 hPa 0,0 l/m 0 min 0 min 0 W/m 32,2 km/h (5 Bft) 97,83 %
12.03.2020 03:24 12,9 C 11,7 C 11,1 C 86 % 1006,6 hPa 0,0 l/m 0 min 0 min 0 W/m 32,2 km/h (5 Bft) 97,87 %
12.03.2020 03:26 12,9 C 12,2 C 11,7 C 86 % 1006,7 hPa 0,0 l/m 0 min 0 min 0 W/m 45,1 km/h (6 Bft) 97,87 %
12.03.2020 03:28 12,9 C 12,2 C 11,7 C 86 % 1006,5 hPa 0,0 l/m 0 min 0 min 0 W/m 32,2 km/h (5 Bft) 97,87 %
12.03.2020 03:30 12,9 C 12,2 C 11,7 C 86 % 1006,6 hPa 0,0 l/m 0 min 0 min 0 W/m 51,5 km/h (7 Bft) 95,74 %
12.03.2020 03:32 12,9 C 12,2 C 11,1 C 85 % 1006,5 hPa 0,0 l/m 0 min 0 min 0 W/m 38,6 km/h (5 Bft) 97,87 %
12.03.2020 03:34 12,9 C 11,7 C 11,1 C 86 % 1006,5 hPa 0,0 l/m 0 min 2 min 0 W/m 35,4 km/h (5 Bft) 97,83 %
12.03.2020 03:36 12,8 C 11,7 C 11,1 C 86 % 1006,4 hPa 0,0 l/m 0 min 0 min 0 W/m 45,1 km/h (6 Bft) 97,87 %
12.03.2020 03:38 12,8 C 11,7 C 11,1 C 86 % 1006,2 hPa 0,0 l/m 0 min 0 min 0 W/m 25,7 km/h (4 Bft) 97,87 %
12.03.2020 03:40 12,8 C 11,7 C 11,1 C 86 % 1006,2 hPa 0,0 l/m 0 min 0 min 0 W/m 29,0 km/h (5 Bft) 97,87 %
12.03.2020 03:42 12,8 C 11,7 C 11,1 C 86 % 1006,3 hPa 0,0 l/m 0 min 0 min 0 W/m 29,0 km/h (5 Bft) 97,87 %
12.03.2020 03:44 12,7 C 11,7 C 11,1 C 86 % 1006,2 hPa 0,0 l/m 0 min 0 min 0 W/m 41,8 km/h (6 Bft) 97,87 %
12.03.2020 03:46 12,7 C 11,7 C 11,1 C 86 % 1006,1 hPa 0,0 l/m 0 min 0 min 0 W/m 22,5 km/h (4 Bft) 95,65 %
12.03.2020 03:48 12,7 C 11,7 C 11,1 C 86 % 1006,0 hPa 0,0 l/m 0 min 0 min 0 W/m 38,6 km/h (5 Bft) 100,00 %
12.03.2020 03:50 12,6 C 11,7 C 11,1 C 86 % 1005,9 hPa 0,0 l/m 0 min 0 min 0 W/m 54,7 km/h (7 Bft) 95,74 %
12.03.2020 03:52 12,7 C 11,7 C 11,1 C 85 % 1006,0 hPa 0,0 l/m 0 min 0 min 0 W/m 32,2 km/h (5 Bft) 100,00 %
12.03.2020 03:54 12,6 C 11,7 C 11,1 C 85 % 1005,9 hPa 0,0 l/m 0 min 0 min 0 W/m 29,0 km/h (5 Bft) 100,00 %
12.03.2020 03:56 12,6 C 11,7 C 11,1 C 85 % 1005,8 hPa 0,0 l/m 0 min 0 min 0 W/m 41,8 km/h (6 Bft) 97,83 %
12.03.2020 03:58 12,7 C 11,7 C 11,1 C 85 % 1005,8 hPa 0,0 l/m 0 min 0 min 0 W/m 48,3 km/h (6 Bft) 100,00 %
12.03.2020 04:00 12,7 C 11,7 C 11,1 C 85 % 1005,7 hPa 0,0 l/m 0 min 0 min 0 W/m 38,6 km/h (5 Bft) 97,87 %
12.03.2020 04:02 12,7 C 12,2 C 11,1 C 85 % 1005,8 hPa 0,0 l/m 0 min 0 min 0 W/m 35,4 km/h (5 Bft) 100,00 %
12.03.2020 04:04 12,7 C 11,7 C 11,1 C 85 % 1005,9 hPa 0,0 l/m 0 min 0 min 0 W/m 25,7 km/h (4 Bft) 97,87 %
12.03.2020 04:06 12,7 C 12,2 C 11,1 C 85 % 1005,9 hPa 0,0 l/m 0 min 0 min 0 W/m 45,1 km/h (6 Bft) 100,00 %
12.03.2020 04:08 12,7 C 12,2 C 11,1 C 85 % 1005,8 hPa 0,0 l/m 0 min 0 min 0 W/m 29,0 km/h (5 Bft) 100,00 %
12.03.2020 04:10 12,7 C 12,2 C 11,1 C 85 % 1005,8 hPa 0,0 l/m 0 min 0 min 0 W/m 35,4 km/h (5 Bft) 100,00 %
12.03.2020 04:12 12,7 C 11,7 C 11,1 C 85 % 1005,8 hPa 0,0 l/m 0 min 0 min 0 W/m 32,2 km/h (5 Bft) 100,00 %
12.03.2020 04:14 12,7 C 11,7 C 11,1 C 85 % 1005,8 hPa 0,0 l/m 0 min 0 min 0 W/m 35,4 km/h (5 Bft) 97,87 %
12.03.2020 04:16 12,7 C 11,7 C 11,1 C 85 % 1005,8 hPa 0,0 l/m 0 min 0 min 0 W/m 19,3 km/h (3 Bft) 100,00 %
12.03.2020 04:18 12,7 C 11,7 C 11,1 C 85 % 1006,0 hPa 0,0 l/m 0 min 0 min 0 W/m 29,0 km/h (5 Bft) 97,87 %
12.03.2020 04:20 12,7 C 11,7 C 11,1 C 85 % 1005,8 hPa 0,0 l/m 0 min 0 min 0 W/m 22,5 km/h (4 Bft) 100,00 %
12.03.2020 04:22 12,6 C 11,7 C 11,1 C 85 % 1005,9 hPa 0,0 l/m 0 min 0 min 0 W/m 32,2 km/h (5 Bft) 100,00 %
12.03.2020 04:24 12,6 C 11,7 C 11,1 C 85 % 1006,0 hPa 0,0 l/m 0 min 0 min 0 W/m 25,7 km/h (4 Bft) 100,00 %
12.03.2020 04:26 12,6 C 11,7 C 11,1 C 85 % 1005,8 hPa 0,0 l/m 0 min 0 min 0 W/m 19,3 km/h (3 Bft) 100,00 %
12.03.2020 04:28 12,6 C 11,7 C 11,1 C 85 % 1006,0 hPa 0,0 l/m 0 min 0 min 0 W/m 29,0 km/h (5 Bft) 97,87 %
12.03.2020 04:30 12,6 C 11,7 C 11,1 C 85 % 1005,9 hPa 0,0 l/m 0 min 0 min 0 W/m 22,5 km/h (4 Bft) 100,00 %
12.03.2020 04:32 12,6 C 11,7 C 11,1 C 85 % 1005,9 hPa 0,0 l/m 0 min 0 min 0 W/m 48,3 km/h (6 Bft) 97,83 %
12.03.2020 04:34 12,6 C 11,7 C 11,1 C 85 % 1005,8 hPa 0,0 l/m 0 min 0 min 0 W/m 29,0 km/h (5 Bft) 95,74 %
12.03.2020 04:36 12,6 C 11,7 C 11,1 C 85 % 1005,9 hPa 0,0 l/m 0 min 0 min 0 W/m 22,5 km/h (4 Bft) 97,87 %
12.03.2020 04:38 12,6 C 11,7 C 11,1 C 85 % 1006,0 hPa 0,0 l/m 0 min 0 min 0 W/m 45,1 km/h (6 Bft) 97,87 %
12.03.2020 04:40 12,6 C 11,7 C 11,1 C 85 % 1005,8 hPa 0,0 l/m 0 min 0 min 0 W/m 29,0 km/h (5 Bft) 95,74 %
12.03.2020 04:42 12,6 C 11,7 C 11,1 C 85 % 1005,8 hPa 0,0 l/m 0 min 0 min 0 W/m 38,6 km/h (5 Bft) 95,74 %
12.03.2020 04:44 12,6 C 11,7 C 11,1 C 85 % 1006,3 hPa 0,0 l/m 0 min 0 min 0 W/m 38,6 km/h (5 Bft) 93,48 %
12.03.2020 04:46 12,6 C 11,7 C 11,1 C 85 % 1005,8 hPa 0,0 l/m 0 min 0 min 0 W/m 51,5 km/h (7 Bft) 91,49 %
12.03.2020 04:48 12,6 C 11,7 C 11,1 C 85 % 1005,9 hPa 0,0 l/m 0 min 0 min 0 W/m 35,4 km/h (5 Bft) 95,74 %
12.03.2020 04:50 12,6 C 11,7 C 11,1 C 85 % 1005,8 hPa 0,0 l/m 0 min 0 min 0 W/m 45,1 km/h (6 Bft) 95,74 %
12.03.2020 04:52 12,6 C 11,7 C 11,1 C 85 % 1006,0 hPa 0,0 l/m 0 min 0 min 0 W/m 41,8 km/h (6 Bft) 95,74 %
12.03.2020 04:54 12,6 C 11,7 C 11,1 C 85 % 1005,9 hPa 0,0 l/m 0 min 0 min 0 W/m 25,7 km/h (4 Bft) 95,65 %
12.03.2020 04:56 12,6 C 11,7 C 11,1 C 85 % 1005,9 hPa 0,0 l/m 0 min 0 min 0 W/m 38,6 km/h (5 Bft) 93,62 %
12.03.2020 04:58 12,6 C 11,7 C 11,1 C 85 % 1005,9 hPa 0,0 l/m 0 min 0 min 0 W/m 22,5 km/h (4 Bft) 95,74 %
12.03.2020 05:00 12,6 C 11,7 C 11,1 C 85 % 1005,9 hPa 0,0 l/m 0 min 0 min 0 W/m 38,6 km/h (5 Bft) 95,74 %
12.03.2020 05:02 12,6 C 11,7 C 11,1 C 85 % 1005,9 hPa 0,0 l/m 0 min 2 min 0 W/m 38,6 km/h (5 Bft) 93,62 %
12.03.2020 05:04 12,6 C 11,7 C 11,1 C 85 % 1006,0 hPa 0,0 l/m 0 min 2 min 0 W/m 22,5 km/h (4 Bft) 95,74 %
12.03.2020 05:06 12,6 C 11,7 C 11,1 C 85 % 1005,8 hPa 0,0 l/m 0 min 0 min 0 W/m 38,6 km/h (5 Bft) 95,74 %
12.03.2020 05:08 12,6 C 11,7 C 11,1 C 85 % 1006,1 hPa 0,0 l/m 0 min 0 min 0 W/m 38,6 km/h (5 Bft) 95,65 %
12.03.2020 05:10 12,6 C 11,7 C 11,1 C 85 % 1006,3 hPa 0,0 l/m 0 min 0 min 0 W/m 41,8 km/h (6 Bft) 95,74 %
12.03.2020 05:12 12,6 C 11,1 C 10,6 C 86 % 1006,0 hPa 0,0 l/m 0 min 0 min 0 W/m 51,5 km/h (7 Bft) 95,74 %
12.03.2020 05:14 12,6 C 11,1 C 10,6 C 86 % 1006,3 hPa 0,0 l/m 0 min 2 min 0 W/m 25,7 km/h (4 Bft) 95,74 %
12.03.2020 05:16 12,5 C 10,6 C 10,0 C 87 % 1006,3 hPa 0,0 l/m 0 min 2 min 0 W/m 32,2 km/h (5 Bft) 93,62 %
12.03.2020 05:18 12,4 C 10,0 C 10,0 C 87 % 1006,1 hPa 0,0 l/m 0 min 2 min 0 W/m 38,6 km/h (5 Bft) 95,65 %
12.03.2020 05:20 12,4 C 10,0 C 9,4 C 87 % 1006,6 hPa 0,2 l/m 0 min 2 min 0 W/m 29,0 km/h (5 Bft) 97,87 %
12.03.2020 05:22 12,3 C 9,4 C 9,4 C 88 % 1006,8 hPa 0,0 l/m 0 min 2 min 0 W/m 25,7 km/h (4 Bft) 100,00 %
12.03.2020 05:24 12,2 C 9,4 C 9,4 C 89 % 1006,6 hPa 0,0 l/m 0 min 2 min 0 W/m 22,5 km/h (4 Bft) 97,87 %
12.03.2020 05:26 12,2 C 9,4 C 9,4 C 89 % 1006,8 hPa 0,0 l/m 0 min 2 min 0 W/m 19,3 km/h (3 Bft) 100,00 %
12.03.2020 05:28 12,1 C 9,4 C 8,9 C 90 % 1006,6 hPa 0,0 l/m 0 min 2 min 0 W/m 25,7 km/h (4 Bft) 97,87 %
12.03.2020 05:30 11,9 C 9,4 C 8,9 C 90 % 1006,7 hPa 0,0 l/m 0 min 2 min 0 W/m 22,5 km/h (4 Bft) 97,83 %
12.03.2020 05:32 11,8 C 9,4 C 8,9 C 90 % 1006,6 hPa 0,2 l/m 0 min 2 min 0 W/m 41,8 km/h (6 Bft) 100,00 %
12.03.2020 05:34 11,7 C 9,4 C 8,9 C 90 % 1006,7 hPa 0,0 l/m 0 min 2 min 0 W/m 45,1 km/h (6 Bft) 100,00 %
12.03.2020 05:36 11,6 C 9,4 C 8,9 C 90 % 1006,7 hPa 0,0 l/m 0 min 2 min 0 W/m 25,7 km/h (4 Bft) 97,87 %
12.03.2020 05:38 11,4 C 9,4 C 8,9 C 90 % 1006,7 hPa 0,0 l/m 0 min 2 min 0 W/m 25,7 km/h (4 Bft) 100,00 %
12.03.2020 05:40 11,4 C 9,4 C 8,9 C 90 % 1006,9 hPa 0,0 l/m 0 min 2 min 0 W/m 19,3 km/h (3 Bft) 100,00 %
12.03.2020 05:42 11,3 C 9,4 C 8,9 C 90 % 1007,1 hPa 0,0 l/m 0 min 2 min 0 W/m 32,2 km/h (5 Bft) 97,83 %
12.03.2020 05:44 11,2 C 9,4 C 8,9 C 90 % 1006,8 hPa 0,0 l/m 0 min 2 min 0 W/m 22,5 km/h (4 Bft) 100,00 %
12.03.2020 05:46 11,2 C 8,9 C 8,9 C 91 % 1006,8 hPa 0,0 l/m 0 min 2 min 0 W/m 25,7 km/h (4 Bft) 100,00 %
12.03.2020 05:48 11,1 C 8,9 C 8,9 C 91 % 1006,9 hPa 0,0 l/m 0 min 2 min 0 W/m 25,7 km/h (4 Bft) 100,00 %
12.03.2020 05:50 11,1 C 8,9 C 8,9 C 91 % 1006,7 hPa 0,0 l/m 0 min 2 min 0 W/m 41,8 km/h (6 Bft) 100,00 %
12.03.2020 05:52 11,1 C 8,9 C 8,9 C 91 % 1007,1 hPa 0,0 l/m 0 min 2 min 0 W/m 19,3 km/h (3 Bft) 95,74 %
12.03.2020 05:54 11,1 C 8,9 C 8,3 C 91 % 1007,0 hPa 0,0 l/m 0 min 2 min 0 W/m 29,0 km/h (5 Bft) 100,00 %
12.03.2020 05:56 11,0 C 8,9 C 8,3 C 91 % 1006,9 hPa 0,0 l/m 0 min 2 min 0 W/m 25,7 km/h (4 Bft) 100,00 %
12.03.2020 05:58 10,9 C 8,9 C 8,3 C 91 % 1006,9 hPa 0,0 l/m 0 min 2 min 0 W/m 25,7 km/h (4 Bft) 100,00 %
12.03.2020 06:00 10,9 C 8,9 C 8,3 C 91 % 1007,0 hPa 0,0 l/m 0 min 2 min 0 W/m 38,6 km/h (5 Bft) 100,00 %
12.03.2020 06:02 10,9 C 8,9 C 8,3 C 91 % 1006,9 hPa 0,0 l/m 0 min 2 min 0 W/m 29,0 km/h (5 Bft) 100,00 %
12.03.2020 06:04 10,9 C 8,9 C 8,3 C 91 % 1006,9 hPa 0,0 l/m 0 min 2 min 0 W/m 29,0 km/h (5 Bft) 100,00 %
12.03.2020 06:08 10,8 C 8,9 C 8,3 C 91 % 1007,0 hPa 0,0 l/m 0 min 4 min 0 W/m 35,4 km/h (5 Bft) 100,00 %
12.03.2020 06:10 10,8 C 8,9 C 8,3 C 91 % 1006,9 hPa 0,0 l/m 0 min 2 min 0 W/m 35,4 km/h (5 Bft) 100,00 %
12.03.2020 06:12 10,7 C 8,9 C 8,3 C 91 % 1006,9 hPa 0,0 l/m 0 min 2 min 0 W/m 19,3 km/h (3 Bft) 97,87 %
12.03.2020 06:14 10,7 C 8,9 C 8,3 C 91 % 1006,9 hPa 0,0 l/m 0 min 2 min 0 W/m 22,5 km/h (4 Bft) 97,87 %
12.03.2020 06:16 10,7 C 8,3 C 8,3 C 91 % 1006,9 hPa 0,0 l/m 0 min 2 min 0 W/m 16,1 km/h (3 Bft) 97,83 %
12.03.2020 06:18 10,6 C 8,3 C 7,8 C 91 % 1006,9 hPa 0,0 l/m 0 min 2 min 0 W/m 22,5 km/h (4 Bft) 97,87 %
12.03.2020 06:20 10,6 C 8,3 C 7,8 C 91 % 1006,9 hPa 0,0 l/m 0 min 2 min 0 W/m 32,2 km/h (5 Bft) 97,87 %
12.03.2020 06:22 10,5 C 8,3 C 7,8 C 91 % 1007,0 hPa 0,0 l/m 0 min 2 min 0 W/m 25,7 km/h (4 Bft) 95,74 %
12.03.2020 06:24 10,5 C 8,3 C 7,8 C 91 % 1006,9 hPa 0,0 l/m 0 min 2 min 0 W/m 29,0 km/h (5 Bft) 97,87 %
12.03.2020 06:26 10,4 C 8,9 C 7,8 C 91 % 1006,9 hPa 0,0 l/m 0 min 2 min 0 W/m 32,2 km/h (5 Bft) 97,87 %
12.03.2020 06:28 10,4 C 8,9 C 7,8 C 91 % 1006,9 hPa 0,0 l/m 0 min 2 min 0 W/m 25,7 km/h (4 Bft) 97,83 %
12.03.2020 06:30 10,4 C 8,9 C 7,8 C 90 % 1007,1 hPa 0,0 l/m 0 min 2 min 0 W/m 25,7 km/h (4 Bft) 97,87 %
12.03.2020 06:32 10,4 C 8,9 C 7,8 C 90 % 1007,0 hPa 0,0 l/m 0 min 2 min 0 W/m 22,5 km/h (4 Bft) 95,74 %
12.03.2020 06:34 10,4 C 8,9 C 7,8 C 90 % 1006,9 hPa 0,0 l/m 0 min 2 min 0 W/m 25,7 km/h (4 Bft) 97,87 %
12.03.2020 06:36 10,4 C 8,9 C 7,8 C 90 % 1007,3 hPa 0,0 l/m 0 min 2 min 0 W/m 41,8 km/h (6 Bft) 97,87 %
12.03.2020 06:38 10,4 C 8,9 C 7,8 C 90 % 1007,1 hPa 0,0 l/m 0 min 2 min 0 W/m 45,1 km/h (6 Bft) 97,87 %
12.03.2020 06:40 10,4 C 8,9 C 7,8 C 90 % 1007,1 hPa 0,0 l/m 0 min 0 min 0 W/m 22,5 km/h (4 Bft) 97,83 %
12.03.2020 06:42 10,3 C 8,9 C 7,8 C 89 % 1007,4 hPa 0,0 l/m 0 min 0 min 0 W/m 19,3 km/h (3 Bft) 100,00 %
12.03.2020 06:44 10,3 C 8,9 C 7,8 C 89 % 1007,3 hPa 0,0 l/m 0 min 2 min 0 W/m 48,3 km/h (6 Bft) 100,00 %
12.03.2020 06:46 10,3 C 8,9 C 7,8 C 89 % 1007,2 hPa 0,0 l/m 0 min 2 min 0 W/m 57,9 km/h (7 Bft) 100,00 %
12.03.2020 06:48 10,3 C 8,3 C 7,8 C 89 % 1007,3 hPa 0,0 l/m 0 min 2 min 0 W/m 35,4 km/h (5 Bft) 100,00 %
12.03.2020 06:50 10,3 C 8,3 C 7,8 C 89 % 1007,4 hPa 0,0 l/m 0 min 2 min 0 W/m 22,5 km/h (4 Bft) 97,87 %
12.03.2020 06:52 10,3 C 7,8 C 7,8 C 89 % 1007,3 hPa 0,0 l/m 0 min 2 min 0 W/m 35,4 km/h (5 Bft) 95,65 %
12.03.2020 06:54 10,3 C 7,8 C 7,8 C 88 % 1007,4 hPa 0,0 l/m 0 min 2 min 0 W/m 19,3 km/h (3 Bft) 95,74 %
12.03.2020 06:56 10,3 C 7,8 C 7,2 C 89 % 1007,3 hPa 0,0 l/m 0 min 2 min 0 W/m 25,7 km/h (4 Bft) 95,74 %
12.03.2020 06:58 10,2 C 7,8 C 7,2 C 88 % 1007,4 hPa 0,0 l/m 0 min 2 min 0 W/m 41,8 km/h (6 Bft) 95,74 %
12.03.2020 07:00 10,1 C 7,8 C 7,2 C 89 % 1007,5 hPa 0,0 l/m 0 min 2 min 0 W/m 22,5 km/h (4 Bft) 97,87 %
12.03.2020 07:02 10,1 C 7,8 C 7,2 C 89 % 1007,6 hPa 0,0 l/m 0 min 2 min 0 W/m 29,0 km/h (5 Bft) 97,83 %
12.03.2020 07:04 10,1 C 7,8 C 7,2 C 89 % 1007,5 hPa 0,0 l/m 0 min 2 min 0 W/m 38,6 km/h (5 Bft) 96,08 %
12.03.2020 07:06 10,0 C 7,8 C 7,2 C 89 % 1007,2 hPa 0,2 l/m 0 min 2 min 3 W/m 29,0 km/h (5 Bft) 97,83 %
12.03.2020 07:08 9,9 C 7,8 C 7,2 C 89 % 1007,3 hPa 0,0 l/m 0 min 2 min 5 W/m 29,0 km/h (5 Bft) 97,87 %
12.03.2020 07:10 9,9 C 7,8 C 7,2 C 89 % 1007,4 hPa 0,0 l/m 0 min 2 min 6 W/m 38,6 km/h (5 Bft) 97,87 %
12.03.2020 07:12 9,9 C 8,3 C 7,2 C 89 % 1007,3 hPa 0,0 l/m 0 min 2 min 7 W/m 32,2 km/h (5 Bft) 95,74 %
12.03.2020 07:14 9,8 C 8,3 C 7,8 C 89 % 1007,4 hPa 0,0 l/m 0 min 2 min 9 W/m 32,2 km/h (5 Bft) 95,74 %
12.03.2020 07:16 9,8 C 8,3 C 7,8 C 89 % 1007,5 hPa 0,0 l/m 0 min 2 min 11 W/m 29,0 km/h (5 Bft) 95,74 %
12.03.2020 07:18 9,8 C 8,3 C 7,8 C 89 % 1007,4 hPa 0,0 l/m 0 min 2 min 13 W/m 16,1 km/h (3 Bft) 93,48 %
12.03.2020 07:20 9,8 C 8,3 C 7,8 C 89 % 1007,5 hPa 0,0 l/m 0 min 2 min 15 W/m 35,4 km/h (5 Bft) 95,74 %
12.03.2020 07:22 9,8 C 8,9 C 7,8 C 89 % 1007,6 hPa 0,0 l/m 0 min 2 min 16 W/m 25,7 km/h (4 Bft) 95,74 %
12.03.2020 07:24 9,8 C 8,9 C 7,8 C 89 % 1007,8 hPa 0,0 l/m 0 min 2 min 19 W/m 29,0 km/h (5 Bft) 95,74 %
12.03.2020 07:26 9,8 C 8,9 C 7,8 C 89 % 1007,6 hPa 0,0 l/m 0 min 2 min 25 W/m 25,7 km/h (4 Bft) 95,74 %
12.03.2020 07:28 9,8 C 8,9 C 7,8 C 89 % 1008,0 hPa 0,0 l/m 0 min 2 min 30 W/m 41,8 km/h (6 Bft) 95,74 %
12.03.2020 07:30 9,8 C 8,9 C 7,8 C 89 % 1007,6 hPa 0,0 l/m 0 min 0 min 33 W/m 32,2 km/h (5 Bft) 93,48 %
12.03.2020 07:32 9,8 C 9,4 C 7,8 C 89 % 1007,6 hPa 0,0 l/m 0 min 0 min 33 W/m 38,6 km/h (5 Bft) 91,49 %
12.03.2020 07:34 9,9 C 9,4 C 7,8 C 89 % 1007,7 hPa 0,0 l/m 0 min 0 min 34 W/m 19,3 km/h (3 Bft) 95,74 %
12.03.2020 07:36 9,9 C 9,4 C 7,8 C 89 % 1007,8 hPa 0,0 l/m 0 min 0 min 37 W/m 35,4 km/h (5 Bft) 93,62 %
12.03.2020 07:38 9,9 C 9,4 C 7,8 C 89 % 1007,7 hPa 0,0 l/m 0 min 0 min 39 W/m 32,2 km/h (5 Bft) 95,74 %
12.03.2020 07:40 9,9 C 9,4 C 7,8 C 89 % 1007,8 hPa 0,0 l/m 0 min 0 min 42 W/m 19,3 km/h (3 Bft) 93,62 %
12.03.2020 07:42 9,9 C 9,4 C 7,8 C 89 % 1007,8 hPa 0,0 l/m 0 min 0 min 43 W/m 29,0 km/h (5 Bft) 93,48 %
12.03.2020 07:44 9,9 C 9,4 C 7,8 C 89 % 1007,9 hPa 0,0 l/m 0 min 0 min 38 W/m 25,7 km/h (4 Bft) 95,74 %
12.03.2020 07:46 10,0 C 9,4 C 7,8 C 89 % 1007,9 hPa 0,0 l/m 0 min 0 min 43 W/m 19,3 km/h (3 Bft) 95,74 %
12.03.2020 07:48 10,0 C 9,4 C 7,8 C 89 % 1008,0 hPa 0,0 l/m 0 min 0 min 37 W/m 41,8 km/h (6 Bft) 95,74 %
12.03.2020 07:50 10,0 C 9,4 C 7,8 C 88 % 1008,0 hPa 0,0 l/m 0 min 0 min 26 W/m 35,4 km/h (5 Bft) 95,74 %
12.03.2020 07:52 10,1 C 9,4 C 7,8 C 88 % 1008,3 hPa 0,0 l/m 0 min 0 min 15 W/m 19,3 km/h (3 Bft) 95,74 %
12.03.2020 07:54 10,1 C 9,4 C 7,8 C 88 % 1008,5 hPa 0,0 l/m 0 min 0 min 9 W/m 25,7 km/h (4 Bft) 91,30 %
12.03.2020 07:56 9,9 C 8,9 C 7,8 C 88 % 1008,5 hPa 0,0 l/m 0 min 2 min 5 W/m 48,3 km/h (6 Bft) 95,74 %
12.03.2020 07:58 9,7 C 7,8 C 7,2 C 86 % 1008,4 hPa 0,0 l/m 0 min 2 min 5 W/m 25,7 km/h (4 Bft) 95,74 %
12.03.2020 08:00 9,5 C 7,8 C 6,7 C 85 % 1008,6 hPa 0,0 l/m 0 min 2 min 5 W/m 48,3 km/h (6 Bft) 97,87 %
12.03.2020 08:02 9,3 C 7,8 C 6,7 C 85 % 1008,5 hPa 0,0 l/m 0 min 2 min 11 W/m 35,4 km/h (5 Bft) 95,74 %
12.03.2020 08:04 9,1 C 7,2 C 6,1 C 85 % 1008,6 hPa 0,0 l/m 0 min 2 min 14 W/m 32,2 km/h (5 Bft) 95,65 %
12.03.2020 08:06 8,9 C 7,2 C 6,1 C 84 % 1008,8 hPa 0,0 l/m 0 min 2 min 16 W/m 38,6 km/h (5 Bft) 95,74 %
12.03.2020 08:08 8,7 C 6,7 C 6,1 C 85 % 1009,0 hPa 0,0 l/m 0 min 2 min 13 W/m 41,8 km/h (6 Bft) 95,74 %
12.03.2020 08:10 8,6 C 6,7 C 6,1 C 85 % 1009,0 hPa 0,0 l/m 0 min 2 min 17 W/m 19,3 km/h (3 Bft) 95,74 %
12.03.2020 08:12 8,5 C 6,7 C 6,1 C 85 % 1008,9 hPa 0,0 l/m 0 min 2 min 13 W/m 32,2 km/h (5 Bft) 100,00 %
12.03.2020 08:14 8,4 C 6,7 C 6,1 C 85 % 1009,1 hPa 0,0 l/m 0 min 2 min 12 W/m 35,4 km/h (5 Bft) 100,00 %
12.03.2020 08:16 8,3 C 6,7 C 5,6 C 85 % 1009,2 hPa 0,0 l/m 0 min 2 min 16 W/m 38,6 km/h (5 Bft) 100,00 %
12.03.2020 08:18 8,2 C 6,7 C 5,6 C 86 % 1009,1 hPa 0,0 l/m 0 min 2 min 19 W/m 32,2 km/h (5 Bft) 97,87 %
12.03.2020 08:20 8,1 C 6,7 C 5,6 C 86 % 1009,2 hPa 0,0 l/m 0 min 2 min 19 W/m 45,1 km/h (6 Bft) 100,00 %
12.03.2020 08:22 7,9 C 6,7 C 5,6 C 86 % 1009,1 hPa 0,0 l/m 0 min 2 min 21 W/m 41,8 km/h (6 Bft) 100,00 %
12.03.2020 08:24 7,8 C 6,7 C 5,6 C 86 % 1009,2 hPa 0,0 l/m 0 min 2 min 34 W/m 41,8 km/h (6 Bft) 100,00 %
12.03.2020 08:26 7,8 C 6,7 C 5,6 C 86 % 1009,3 hPa 0,0 l/m 0 min 2 min 23 W/m 25,7 km/h (4 Bft) 100,00 %
12.03.2020 08:28 7,7 C 6,7 C 5,6 C 86 % 1009,3 hPa 0,0 l/m 0 min 2 min 27 W/m 25,7 km/h (4 Bft) 100,00 %
12.03.2020 08:30 7,7 C 6,7 C 6,1 C 86 % 1009,3 hPa 0,0 l/m 0 min 2 min 28 W/m 29,0 km/h (5 Bft) 97,87 %
12.03.2020 08:32 7,6 C 6,7 C 6,7 C 85 % 1009,3 hPa 0,0 l/m 0 min 2 min 28 W/m 32,2 km/h (5 Bft) 100,00 %
12.03.2020 08:34 7,6 C 7,2 C 6,7 C 85 % 1009,4 hPa 0,0 l/m 0 min 2 min 30 W/m 38,6 km/h (5 Bft) 100,00 %
12.03.2020 08:36 7,6 C 6,7 C 6,7 C 85 % 1009,4 hPa 0,0 l/m 0 min 2 min 34 W/m 32,2 km/h (5 Bft) 100,00 %
12.03.2020 08:38 7,6 C 6,7 C 6,1 C 85 % 1009,6 hPa 0,0 l/m 0 min 2 min 40 W/m 25,7 km/h (4 Bft) 100,00 %
12.03.2020 08:40 7,6 C 6,1 C 6,1 C 85 % 1009,7 hPa 0,0 l/m 0 min 2 min 70 W/m 22,5 km/h (4 Bft) 100,00 %
12.03.2020 08:42 7,6 C 6,7 C 6,1 C 85 % 1009,6 hPa 0,0 l/m 0 min 2 min 95 W/m 25,7 km/h (4 Bft) 100,00 %
12.03.2020 08:44 7,6 C 6,7 C 6,1 C 85 % 1009,5 hPa 0,0 l/m 0 min 2 min 73 W/m 19,3 km/h (3 Bft) 100,00 %
12.03.2020 08:46 7,6 C 6,7 C 6,1 C 85 % 1009,5 hPa 0,0 l/m 0 min 2 min 88 W/m 29,0 km/h (5 Bft) 97,87 %
12.03.2020 08:48 7,6 C 7,2 C 6,1 C 84 % 1009,5 hPa 0,0 l/m 0 min 2 min 98 W/m 32,2 km/h (5 Bft) 100,00 %
12.03.2020 08:50 7,6 C 7,2 C 6,7 C 84 % 1009,5 hPa 0,0 l/m 0 min 2 min 99 W/m 22,5 km/h (4 Bft) 100,00 %
12.03.2020 08:52 7,6 C 7,8 C 6,7 C 84 % 1009,7 hPa 0,0 l/m 0 min 0 min 120 W/m 16,1 km/h (3 Bft) 100,00 %
12.03.2020 08:54 7,7 C 8,3 C 7,2 C 84 % 1009,6 hPa 0,0 l/m 2 min 0 min 155 W/m 32,2 km/h (5 Bft) 100,00 %
12.03.2020 08:56 7,7 C 8,3 C 7,2 C 83 % 1009,8 hPa 0,0 l/m 2 min 0 min 170 W/m 29,0 km/h (5 Bft) 100,00 %
12.03.2020 08:58 7,8 C 8,3 C 7,8 C 83 % 1009,9 hPa 0,0 l/m 2 min 0 min 157 W/m 25,7 km/h (4 Bft) 100,00 %
12.03.2020 09:00 7,9 C 8,9 C 7,8 C 83 % 1010,0 hPa 0,0 l/m 2 min 0 min 172 W/m 25,7 km/h (4 Bft) 100,00 %
12.03.2020 09:02 8,0 C 8,9 C 7,8 C 82 % 1009,9 hPa 0,0 l/m 2 min 0 min 199 W/m 32,2 km/h (5 Bft) 100,00 %
12.03.2020 09:04 8,1 C 8,9 C 7,8 C 82 % 1010,0 hPa 0,0 l/m 2 min 0 min 165 W/m 45,1 km/h (6 Bft) 100,00 %
12.03.2020 09:06 8,2 C 8,9 C 7,8 C 81 % 1010,0 hPa 0,0 l/m 0 min 0 min 141 W/m 25,7 km/h (4 Bft) 100,00 %
12.03.2020 09:08 8,3 C 8,9 C 7,8 C 81 % 1010,2 hPa 0,0 l/m 0 min 0 min 137 W/m 22,5 km/h (4 Bft) 100,00 %
12.03.2020 09:10 8,3 C 8,9 C 7,8 C 81 % 1010,1 hPa 0,0 l/m 0 min 0 min 135 W/m 25,7 km/h (4 Bft) 100,00 %
12.03.2020 09:12 8,4 C 8,9 C 7,8 C 80 % 1010,2 hPa 0,0 l/m 0 min 0 min 135 W/m 22,5 km/h (4 Bft) 100,00 %
12.03.2020 09:14 8,4 C 8,9 C 7,8 C 80 % 1010,3 hPa 0,0 l/m 0 min 0 min 135 W/m 19,3 km/h (3 Bft) 100,00 %
12.03.2020 09:16 8,4 C 8,9 C 7,8 C 80 % 1010,3 hPa 0,0 l/m 0 min 0 min 125 W/m 19,3 km/h (3 Bft) 97,87 %
12.03.2020 09:18 8,5 C 8,9 C 7,8 C 80 % 1010,5 hPa 0,0 l/m 0 min 0 min 122 W/m 19,3 km/h (3 Bft) 100,00 %
12.03.2020 09:20 8,6 C 8,9 C 7,8 C 80 % 1010,5 hPa 0,0 l/m 0 min 0 min 135 W/m 19,3 km/h (3 Bft) 100,00 %
12.03.2020 09:22 8,6 C 8,9 C 7,8 C 80 % 1010,6 hPa 0,0 l/m 0 min 0 min 136 W/m 22,5 km/h (4 Bft) 97,87 %
12.03.2020 09:24 8,6 C 8,9 C 8,3 C 80 % 1010,6 hPa 0,0 l/m 0 min 0 min 154 W/m 25,7 km/h (4 Bft) 100,00 %
12.03.2020 09:26 8,6 C 8,9 C 8,3 C 80 % 1010,6 hPa 0,0 l/m 0 min 0 min 150 W/m 16,1 km/h (3 Bft) 100,00 %
12.03.2020 09:28 8,7 C 8,9 C 8,3 C 80 % 1010,8 hPa 0,0 l/m 0 min 0 min 145 W/m 32,2 km/h (5 Bft) 97,87 %
12.03.2020 09:30 8,7 C 8,9 C 8,3 C 80 % 1010,6 hPa 0,0 l/m 0 min 0 min 154 W/m 16,1 km/h (3 Bft) 100,00 %
12.03.2020 09:32 8,7 C 8,9 C 8,3 C 80 % 1010,7 hPa 0,0 l/m 0 min 0 min 140 W/m 29,0 km/h (5 Bft) 97,87 %
12.03.2020 09:34 8,8 C 8,9 C 8,3 C 81 % 1010,7 hPa 0,0 l/m 0 min 0 min 104 W/m 32,2 km/h (5 Bft) 97,56 %
12.03.2020 09:36 8,8 C 8,9 C 8,3 C 81 % 1010,7 hPa 0,0 l/m 0 min 0 min 98 W/m 25,7 km/h (4 Bft) 95,74 %
12.03.2020 09:38 8,8 C 8,9 C 8,3 C 81 % 1010,8 hPa 0,0 l/m 0 min 0 min 125 W/m 12,9 km/h (3 Bft) 100,00 %
12.03.2020 09:40 8,8 C 9,4 C 8,3 C 81 % 1010,9 hPa 0,0 l/m 0 min 0 min 124 W/m 25,7 km/h (4 Bft) 100,00 %
12.03.2020 09:42 8,8 C 10,0 C 8,9 C 80 % 1011,0 hPa 0,0 l/m 0 min 0 min 116 W/m 32,2 km/h (5 Bft) 100,00 %
12.03.2020 09:44 8,8 C 11,1 C 9,4 C 81 % 1011,0 hPa 0,0 l/m 0 min 0 min 116 W/m 29,0 km/h (5 Bft) 100,00 %
12.03.2020 09:46 8,8 C 12,2 C 10,6 C 81 % 1011,0 hPa 0,0 l/m 2 min 0 min 220 W/m 22,5 km/h (4 Bft) 97,87 %
12.03.2020 09:48 8,9 C 13,3 C 10,6 C 81 % 1011,1 hPa 0,0 l/m 2 min 0 min 427 W/m 19,3 km/h (3 Bft) 95,74 %
12.03.2020 09:50 9,1 C 13,3 C 10,0 C 81 % 1011,1 hPa 0,0 l/m 2 min 0 min 431 W/m 29,0 km/h (5 Bft) 52,27 %
12.03.2020 09:52 9,2 C 13,9 C 9,4 C 81 % 1011,2 hPa 0,0 l/m 2 min 0 min 446 W/m 35,4 km/h (5 Bft) 93,62 %
12.03.2020 09:54 9,3 C 13,9 C 9,4 C 81 % 1011,3 hPa 0,0 l/m 2 min 0 min 444 W/m 25,7 km/h (4 Bft) 97,87 %
12.03.2020 09:56 9,4 C 14,4 C 8,9 C 80 % 1011,3 hPa 0,0 l/m 2 min 0 min 455 W/m 16,1 km/h (3 Bft) 97,87 %
12.03.2020 09:58 9,6 C 15,0 C 8,9 C 81 % 1011,3 hPa 0,0 l/m 2 min 0 min 468 W/m 25,7 km/h (4 Bft) 97,87 %
12.03.2020 10:00 9,7 C 15,0 C 9,4 C 80 % 1011,3 hPa 0,0 l/m 2 min 0 min 499 W/m 29,0 km/h (5 Bft) 93,48 %
12.03.2020 10:02 9,8 C 14,4 C 8,9 C 79 % 1011,4 hPa 0,0 l/m 2 min 0 min 490 W/m 22,5 km/h (4 Bft) 95,74 %
12.03.2020 10:04 9,9 C 14,4 C 9,4 C 78 % 1011,4 hPa 0,0 l/m 2 min 0 min 533 W/m 19,3 km/h (3 Bft) 95,74 %
12.03.2020 10:06 9,9 C 12,2 C 8,9 C 77 % 1011,5 hPa 0,0 l/m 2 min 0 min 548 W/m 19,3 km/h (3 Bft) 95,74 %
12.03.2020 10:08 9,9 C 12,8 C 8,9 C 76 % 1011,5 hPa 0,0 l/m 2 min 0 min 548 W/m 19,3 km/h (3 Bft) 93,62 %
12.03.2020 10:10 9,9 C 12,2 C 8,9 C 75 % 1011,6 hPa 0,0 l/m 2 min 0 min 548 W/m 25,7 km/h (4 Bft) 91,49 %
12.03.2020 10:12 9,9 C 11,7 C 8,9 C 74 % 1011,6 hPa 0,0 l/m 0 min 0 min 164 W/m 22,5 km/h (4 Bft) 95,65 %
12.03.2020 10:14 9,8 C 11,7 C 8,9 C 73 % 1011,6 hPa 0,0 l/m 2 min 0 min 445 W/m 22,5 km/h (4 Bft) 97,87 %
12.03.2020 10:16 9,8 C 11,7 C 8,9 C 74 % 1011,7 hPa 0,0 l/m 2 min 0 min 338 W/m 19,3 km/h (3 Bft) 95,74 %
12.03.2020 10:18 9,7 C 11,7 C 8,9 C 73 % 1011,7 hPa 0,0 l/m 0 min 0 min 183 W/m 38,6 km/h (5 Bft) 93,62 %
12.03.2020 10:20 9,7 C 12,2 C 8,9 C 73 % 1011,7 hPa 0,0 l/m 2 min 0 min 521 W/m 29,0 km/h (5 Bft) 93,62 %
12.03.2020 10:22 9,7 C 12,8 C 8,9 C 72 % 1011,8 hPa 0,0 l/m 2 min 0 min 512 W/m 32,2 km/h (5 Bft) 93,62 %
12.03.2020 10:24 9,8 C 13,3 C 8,9 C 72 % 1011,8 hPa 0,0 l/m 2 min 0 min 510 W/m 29,0 km/h (5 Bft) 95,74 %
12.03.2020 10:26 9,9 C 13,9 C 8,9 C 72 % 1011,9 hPa 0,0 l/m 2 min 0 min 523 W/m 22,5 km/h (4 Bft) 93,48 %
12.03.2020 10:28 9,9 C 12,2 C 8,9 C 71 % 1011,8 hPa 0,0 l/m 2 min 0 min 516 W/m 19,3 km/h (3 Bft) 91,49 %
12.03.2020 10:30 9,9 C 13,9 C 8,9 C 71 % 1011,9 hPa 0,0 l/m 2 min 0 min 534 W/m 22,5 km/h (4 Bft) 91,49 %
12.03.2020 10:32 10,0 C 14,4 C 9,4 C 71 % 1011,8 hPa 0,0 l/m 2 min 0 min 525 W/m 12,9 km/h (3 Bft) 91,49 %
12.03.2020 10:34 10,1 C 14,4 C 9,4 C 69 % 1011,9 hPa 0,0 l/m 2 min 0 min 531 W/m 22,5 km/h (4 Bft) 95,74 %
12.03.2020 10:36 10,1 C 14,4 C 9,4 C 67 % 1012,0 hPa 0,0 l/m 2 min 0 min 531 W/m 19,3 km/h (3 Bft) 95,65 %
12.03.2020 10:38 10,2 C 14,4 C 9,4 C 67 % 1012,0 hPa 0,0 l/m 2 min 0 min 533 W/m 29,0 km/h (5 Bft) 93,62 %
12.03.2020 10:40 10,2 C 14,4 C 9,4 C 67 % 1012,0 hPa 0,0 l/m 2 min 0 min 540 W/m 19,3 km/h (3 Bft) 97,87 %
12.03.2020 10:42 10,3 C 14,4 C 9,4 C 67 % 1012,0 hPa 0,0 l/m 2 min 0 min 544 W/m 19,3 km/h (3 Bft) 93,62 %
12.03.2020 10:44 10,4 C 15,0 C 9,4 C 66 % 1012,0 hPa 0,0 l/m 2 min 0 min 549 W/m 35,4 km/h (5 Bft) 97,87 %
12.03.2020 10:46 10,5 C 14,4 C 9,4 C 64 % 1012,1 hPa 0,0 l/m 2 min 0 min 555 W/m 25,7 km/h (4 Bft) 97,83 %
12.03.2020 10:48 10,6 C 15,0 C 10,0 C 64 % 1012,1 hPa 0,0 l/m 2 min 0 min 564 W/m 25,7 km/h (4 Bft) 93,62 %
12.03.2020 10:50 10,6 C 15,6 C 10,0 C 63 % 1012,1 hPa 0,0 l/m 2 min 0 min 566 W/m 16,1 km/h (3 Bft) 95,74 %
12.03.2020 10:52 10,7 C 15,0 C 10,0 C 62 % 1012,0 hPa 0,0 l/m 2 min 0 min 566 W/m 19,3 km/h (3 Bft) 97,87 %
12.03.2020 10:54 10,8 C 15,6 C 10,0 C 64 % 1012,1 hPa 0,0 l/m 2 min 0 min 573 W/m 22,5 km/h (4 Bft) 97,87 %
12.03.2020 10:56 10,8 C 14,4 C 10,0 C 59 % 1012,2 hPa 0,0 l/m 2 min 0 min 578 W/m 45,1 km/h (6 Bft) 97,87 %
12.03.2020 10:58 10,8 C 14,4 C 9,4 C 57 % 1012,2 hPa 0,0 l/m 2 min 0 min 584 W/m 32,2 km/h (5 Bft) 97,83 %
12.03.2020 11:00 10,8 C 14,4 C 9,4 C 57 % 1012,2 hPa 0,0 l/m 2 min 0 min 589 W/m 29,0 km/h (5 Bft) 97,87 %
12.03.2020 11:02 10,9 C 15,0 C 9,4 C 58 % 1012,2 hPa 0,0 l/m 2 min 0 min 590 W/m 22,5 km/h (4 Bft) 95,74 %
12.03.2020 11:04 10,9 C 15,6 C 10,0 C 58 % 1012,3 hPa 0,0 l/m 2 min 0 min 595 W/m 19,3 km/h (3 Bft) 97,87 %
12.03.2020 11:06 11,0 C 15,6 C 10,0 C 59 % 1012,3 hPa 0,0 l/m 2 min 0 min 594 W/m 29,0 km/h (5 Bft) 97,87 %
12.03.2020 11:08 11,1 C 15,6 C 10,0 C 58 % 1012,3 hPa 0,0 l/m 2 min 0 min 598 W/m 22,5 km/h (4 Bft) 95,74 %
12.03.2020 11:10 11,1 C 15,0 C 9,4 C 57 % 1012,3 hPa 0,0 l/m 2 min 0 min 600 W/m 32,2 km/h (5 Bft) 97,87 %
12.03.2020 11:12 11,1 C 14,4 C 9,4 C 55 % 1012,4 hPa 0,0 l/m 2 min 0 min 607 W/m 29,0 km/h (5 Bft) 97,83 %
12.03.2020 11:14 11,1 C 14,4 C 9,4 C 55 % 1012,4 hPa 0,0 l/m 2 min 0 min 608 W/m 32,2 km/h (5 Bft) 97,87 %
12.03.2020 11:16 11,1 C 14,4 C 9,4 C 54 % 1012,5 hPa 0,0 l/m 2 min 0 min 609 W/m 41,8 km/h (6 Bft) 97,87 %
12.03.2020 11:18 11,1 C 15,6 C 10,0 C 55 % 1012,5 hPa 0,0 l/m 2 min 0 min 612 W/m 16,1 km/h (3 Bft) 95,74 %
12.03.2020 11:20 11,1 C 15,6 C 10,0 C 55 % 1012,5 hPa 0,0 l/m 2 min 0 min 618 W/m 19,3 km/h (3 Bft) 97,87 %
12.03.2020 11:22 11,2 C 15,6 C 10,0 C 54 % 1012,5 hPa 0,0 l/m 2 min 0 min 622 W/m 32,2 km/h (5 Bft) 97,83 %
12.03.2020 11:24 11,2 C 15,6 C 10,0 C 54 % 1012,6 hPa 0,0 l/m 2 min 0 min 622 W/m 25,7 km/h (4 Bft) 97,87 %
12.03.2020 11:26 11,3 C 15,6 C 10,0 C 53 % 1012,6 hPa 0,0 l/m 2 min 0 min 624 W/m 19,3 km/h (3 Bft) 97,87 %
12.03.2020 11:28 11,3 C 15,6 C 10,0 C 53 % 1012,6 hPa 0,0 l/m 2 min 0 min 623 W/m 16,1 km/h (3 Bft) 97,87 %
12.03.2020 11:30 11,3 C 16,1 C 10,0 C 54 % 1012,6 hPa 0,0 l/m 2 min 0 min 626 W/m 22,5 km/h (4 Bft) 97,87 %
12.03.2020 11:32 11,4 C 16,1 C 10,0 C 54 % 1012,6 hPa 0,0 l/m 2 min 0 min 631 W/m 22,5 km/h (4 Bft) 95,74 %
12.03.2020 11:34 11,4 C 16,1 C 10,0 C 54 % 1012,7 hPa 0,0 l/m 2 min 0 min 631 W/m 19,3 km/h (3 Bft) 97,83 %
12.03.2020 11:36 11,4 C 16,1 C 10,0 C 54 % 1012,7 hPa 0,0 l/m 2 min 0 min 629 W/m 19,3 km/h (3 Bft) 97,87 %
12.03.2020 11:38 11,5 C 16,1 C 10,0 C 54 % 1012,7 hPa 0,0 l/m 2 min 0 min 631 W/m 25,7 km/h (4 Bft) 97,87 %
12.03.2020 11:40 11,5 C 16,1 C 10,0 C 55 % 1012,7 hPa 0,0 l/m 2 min 0 min 634 W/m 16,1 km/h (3 Bft) 97,87 %
12.03.2020 11:42 11,6 C 16,7 C 10,0 C 55 % 1012,7 hPa 0,0 l/m 2 min 0 min 639 W/m 19,3 km/h (3 Bft) 97,87 %
12.03.2020 11:44 11,6 C 16,7 C 10,0 C 55 % 1012,7 hPa 0,0 l/m 2 min 0 min 642 W/m 19,3 km/h (3 Bft) 97,87 %
12.03.2020 11:46 11,7 C 17,2 C 10,6 C 55 % 1012,7 hPa 0,0 l/m 2 min 0 min 641 W/m 22,5 km/h (4 Bft) 97,83 %
12.03.2020 11:48 11,8 C 17,2 C 10,6 C 56 % 1012,7 hPa 0,0 l/m 2 min 0 min 646 W/m 19,3 km/h (3 Bft) 97,87 %
12.03.2020 11:50 11,8 C 16,1 C 10,6 C 53 % 1012,8 hPa 0,0 l/m 2 min 0 min 646 W/m 29,0 km/h (5 Bft) 95,74 %
12.03.2020 11:52 11,8 C 16,7 C 10,0 C 52 % 1012,6 hPa 0,0 l/m 2 min 0 min 649 W/m 22,5 km/h (4 Bft) 97,87 %
12.03.2020 11:54 11,8 C 16,7 C 10,6 C 53 % 1012,7 hPa 0,0 l/m 2 min 0 min 649 W/m 32,2 km/h (5 Bft) 95,74 %
12.03.2020 11:56 11,9 C 16,1 C 10,6 C 53 % 1012,7 hPa 0,0 l/m 2 min 0 min 650 W/m 25,7 km/h (4 Bft) 97,87 %
12.03.2020 11:58 11,9 C 16,1 C 10,6 C 54 % 1012,7 hPa 0,0 l/m 2 min 0 min 653 W/m 29,0 km/h (5 Bft) 97,83 %
12.03.2020 12:00 11,9 C 16,7 C 10,6 C 53 % 1012,7 hPa 0,0 l/m 2 min 0 min 656 W/m 29,0 km/h (5 Bft) 97,87 %
12.03.2020 12:02 11,9 C 16,1 C 10,6 C 54 % 1012,8 hPa 0,0 l/m 2 min 0 min 653 W/m 38,6 km/h (5 Bft) 93,62 %
12.03.2020 12:04 11,9 C 16,1 C 10,6 C 55 % 1012,7 hPa 0,0 l/m 2 min 0 min 653 W/m 19,3 km/h (3 Bft) 97,87 %
12.03.2020 12:08 11,9 C 16,1 C 10,6 C 55 % 1012,7 hPa 0,0 l/m 4 min 0 min 656 W/m 29,0 km/h (5 Bft) 98,92 %
12.03.2020 12:10 12,0 C 16,7 C 10,6 C 56 % 1012,7 hPa 0,0 l/m 2 min 0 min 655 W/m 22,5 km/h (4 Bft) 95,74 %
12.03.2020 12:12 12,0 C 16,7 C 10,6 C 56 % 1012,8 hPa 0,0 l/m 2 min 0 min 656 W/m 22,5 km/h (4 Bft) 95,74 %
12.03.2020 12:14 12,1 C 16,1 C 10,6 C 54 % 1012,8 hPa 0,0 l/m 2 min 0 min 663 W/m 22,5 km/h (4 Bft) 93,62 %
12.03.2020 12:16 12,0 C 15,6 C 10,6 C 54 % 1012,7 hPa 0,0 l/m 2 min 0 min 667 W/m 19,3 km/h (3 Bft) 95,74 %
12.03.2020 12:18 12,0 C 15,6 C 10,6 C 55 % 1012,7 hPa 0,0 l/m 2 min 0 min 670 W/m 29,0 km/h (5 Bft) 95,74 %
12.03.2020 12:20 12,1 C 16,1 C 10,6 C 55 % 1012,8 hPa 0,0 l/m 2 min 0 min 670 W/m 16,1 km/h (3 Bft) 93,62 %
12.03.2020 12:22 12,1 C 16,1 C 10,6 C 55 % 1012,8 hPa 0,0 l/m 2 min 0 min 669 W/m 16,1 km/h (3 Bft) 93,48 %
12.03.2020 12:24 12,1 C 16,1 C 11,1 C 55 % 1012,8 hPa 0,0 l/m 2 min 0 min 669 W/m 22,5 km/h (4 Bft) 91,49 %
12.03.2020 12:26 12,1 C 16,7 C 11,1 C 56 % 1012,8 hPa 0,0 l/m 2 min 0 min 671 W/m 16,1 km/h (3 Bft) 91,49 %
12.03.2020 12:28 12,2 C 16,1 C 11,1 C 55 % 1012,8 hPa 0,0 l/m 2 min 0 min 674 W/m 22,5 km/h (4 Bft) 93,62 %
12.03.2020 12:30 12,2 C 16,1 C 11,1 C 54 % 1012,8 hPa 0,0 l/m 2 min 0 min 676 W/m 29,0 km/h (5 Bft) 93,62 %
12.03.2020 12:32 12,2 C 16,1 C 10,6 C 53 % 1012,8 hPa 0,0 l/m 2 min 0 min 679 W/m 22,5 km/h (4 Bft) 91,30 %
12.03.2020 12:34 12,2 C 16,1 C 10,6 C 51 % 1012,8 hPa 0,0 l/m 2 min 0 min 678 W/m 22,5 km/h (4 Bft) 93,62 %
12.03.2020 12:36 12,2 C 16,1 C 11,1 C 54 % 1012,8 hPa 0,0 l/m 2 min 0 min 675 W/m 25,7 km/h (4 Bft) 93,62 %
12.03.2020 12:38 12,2 C 16,1 C 11,1 C 53 % 1012,8 hPa 0,0 l/m 2 min 0 min 673 W/m 22,5 km/h (4 Bft) 93,62 %
12.03.2020 12:40 12,2 C 16,7 C 11,7 C 54 % 1012,9 hPa 0,0 l/m 2 min 0 min 678 W/m 19,3 km/h (3 Bft) 93,62 %
12.03.2020 12:42 12,3 C 17,2 C 13,3 C 55 % 1012,8 hPa 0,0 l/m 2 min 0 min 680 W/m 35,4 km/h (5 Bft) 93,62 %
12.03.2020 12:44 12,3 C 17,2 C 14,4 C 55 % 1012,9 hPa 0,0 l/m 2 min 0 min 678 W/m 16,1 km/h (3 Bft) 93,48 %
12.03.2020 12:46 12,4 C 17,2 C 15,6 C 54 % 1012,8 hPa 0,0 l/m 2 min 0 min 678 W/m 22,5 km/h (4 Bft) 95,74 %
12.03.2020 12:48 12,4 C 16,7 C 16,1 C 54 % 1012,8 hPa 0,0 l/m 2 min 0 min 678 W/m 16,1 km/h (3 Bft) 93,62 %
12.03.2020 12:50 12,5 C 17,2 C 16,7 C 55 % 1012,9 hPa 0,0 l/m 2 min 0 min 681 W/m 12,9 km/h (3 Bft) 93,62 %
12.03.2020 12:52 12,6 C 18,3 C 17,8 C 55 % 1012,9 hPa 0,0 l/m 2 min 0 min 676 W/m 9,7 km/h (2 Bft) 95,74 %
12.03.2020 12:54 12,7 C 18,3 C 17,8 C 56 % 1012,8 hPa 0,0 l/m 2 min 0 min 677 W/m 19,3 km/h (3 Bft) 95,74 %
12.03.2020 12:56 12,7 C 17,2 C 17,2 C 55 % 1012,8 hPa 0,0 l/m 2 min 0 min 699 W/m 16,1 km/h (3 Bft) 93,48 %
12.03.2020 12:58 12,8 C 18,3 C 17,8 C 56 % 1012,7 hPa 0,0 l/m 2 min 0 min 727 W/m 12,9 km/h (3 Bft) 95,74 %
12.03.2020 13:00 12,8 C 17,2 C 17,8 C 56 % 1012,7 hPa 0,0 l/m 2 min 0 min 709 W/m 16,1 km/h (3 Bft) 95,74 %
12.03.2020 13:02 12,9 C 17,2 C 17,2 C 57 % 1012,8 hPa 0,0 l/m 2 min 0 min 698 W/m 29,0 km/h (5 Bft) 95,74 %
12.03.2020 13:04 12,9 C 16,1 C 16,7 C 54 % 1012,7 hPa 0,0 l/m 2 min 0 min 697 W/m 25,7 km/h (4 Bft) 97,87 %
12.03.2020 13:06 12,8 C 16,1 C 16,1 C 53 % 1012,8 hPa 0,0 l/m 2 min 0 min 713 W/m 32,2 km/h (5 Bft) 97,83 %
12.03.2020 13:08 12,7 C 17,2 C 17,2 C 53 % 1012,8 hPa 0,0 l/m 2 min 0 min 717 W/m 19,3 km/h (3 Bft) 97,87 %
12.03.2020 13:10 12,7 C 16,7 C 16,7 C 54 % 1012,8 hPa 0,0 l/m 2 min 0 min 723 W/m 25,7 km/h (4 Bft) 97,87 %
12.03.2020 13:12 12,7 C 16,1 C 16,7 C 54 % 1012,8 hPa 0,0 l/m 2 min 0 min 716 W/m 22,5 km/h (4 Bft) 97,87 %
12.03.2020 13:14 12,7 C 16,7 C 17,2 C 55 % 1012,7 hPa 0,0 l/m 2 min 0 min 742 W/m 25,7 km/h (4 Bft) 97,87 %
12.03.2020 13:16 12,7 C 17,2 C 17,8 C 55 % 1012,8 hPa 0,0 l/m 2 min 0 min 734 W/m 12,9 km/h (3 Bft) 95,74 %
12.03.2020 13:18 12,7 C 17,8 C 18,3 C 56 % 1012,7 hPa 0,0 l/m 2 min 0 min 692 W/m 32,2 km/h (5 Bft) 97,87 %
12.03.2020 13:20 12,8 C 18,3 C 18,3 C 57 % 1012,8 hPa 0,0 l/m 2 min 0 min 678 W/m 16,1 km/h (3 Bft) 97,83 %
12.03.2020 13:22 12,9 C 17,2 C 15,6 C 54 % 1012,7 hPa 0,0 l/m 2 min 0 min 676 W/m 19,3 km/h (3 Bft) 95,74 %
12.03.2020 13:24 12,9 C 16,7 C 13,9 C 53 % 1012,8 hPa 0,0 l/m 2 min 0 min 681 W/m 25,7 km/h (4 Bft) 95,74 %
12.03.2020 13:26 12,9 C 16,7 C 13,9 C 53 % 1012,8 hPa 0,0 l/m 2 min 0 min 693 W/m 22,5 km/h (4 Bft) 97,87 %
12.03.2020 13:28 12,9 C 16,7 C 15,0 C 55 % 1012,7 hPa 0,0 l/m 2 min 0 min 683 W/m 16,1 km/h (3 Bft) 97,87 %
12.03.2020 13:30 12,8 C 16,7 C 13,9 C 52 % 1012,8 hPa 0,0 l/m 2 min 0 min 676 W/m 22,5 km/h (4 Bft) 97,83 %
12.03.2020 13:32 12,8 C 16,7 C 12,8 C 52 % 1012,7 hPa 0,0 l/m 2 min 0 min 668 W/m 19,3 km/h (3 Bft) 97,87 %
12.03.2020 13:34 12,8 C 15,6 C 12,2 C 49 % 1012,7 hPa 0,0 l/m 2 min 0 min 668 W/m 19,3 km/h (3 Bft) 97,87 %
12.03.2020 13:36 12,8 C 16,1 C 11,7 C 48 % 1012,7 hPa 0,0 l/m 2 min 0 min 676 W/m 38,6 km/h (5 Bft) 97,87 %
12.03.2020 13:38 12,7 C 15,6 C 11,1 C 48 % 1012,8 hPa 0,0 l/m 2 min 0 min 678 W/m 41,8 km/h (6 Bft) 97,87 %
12.03.2020 13:40 12,6 C 15,6 C 11,7 C 49 % 1012,7 hPa 0,0 l/m 2 min 0 min 670 W/m 22,5 km/h (4 Bft) 97,87 %
12.03.2020 13:42 12,6 C 16,7 C 11,7 C 50 % 1012,6 hPa 0,0 l/m 2 min 0 min 669 W/m 22,5 km/h (4 Bft) 97,83 %
12.03.2020 13:44 12,6 C 16,7 C 11,7 C 49 % 1012,7 hPa 0,0 l/m 2 min 0 min 667 W/m 19,3 km/h (3 Bft) 97,87 %
12.03.2020 13:46 12,6 C 16,1 C 11,7 C 48 % 1012,7 hPa 0,0 l/m 2 min 0 min 661 W/m 32,2 km/h (5 Bft) 97,87 %
12.03.2020 13:48 12,6 C 16,1 C 11,7 C 48 % 1012,7 hPa 0,0 l/m 2 min 0 min 654 W/m 19,3 km/h (3 Bft) 97,87 %
12.03.2020 13:50 12,5 C 16,1 C 11,7 C 46 % 1012,6 hPa 0,0 l/m 2 min 0 min 647 W/m 32,2 km/h (5 Bft) 97,87 %
12.03.2020 13:52 12,6 C 16,7 C 11,7 C 49 % 1012,6 hPa 0,0 l/m 2 min 0 min 642 W/m 16,1 km/h (3 Bft) 97,87 %
12.03.2020 13:54 12,6 C 17,2 C 11,7 C 50 % 1012,6 hPa 0,0 l/m 2 min 0 min 642 W/m 22,5 km/h (4 Bft) 97,83 %
12.03.2020 13:56 12,6 C 16,7 C 11,7 C 49 % 1012,6 hPa 0,0 l/m 2 min 0 min 642 W/m 19,3 km/h (3 Bft) 100,00 %
12.03.2020 13:58 12,6 C 16,7 C 11,7 C 50 % 1012,7 hPa 0,0 l/m 2 min 0 min 637 W/m 16,1 km/h (3 Bft) 100,00 %
12.03.2020 14:00 12,6 C 16,1 C 11,7 C 49 % 1012,6 hPa 0,0 l/m 2 min 0 min 633 W/m 19,3 km/h (3 Bft) 100,00 %
12.03.2020 14:02 12,6 C 16,1 C 11,1 C 49 % 1012,5 hPa 0,0 l/m 2 min 0 min 633 W/m 19,3 km/h (3 Bft) 100,00 %
12.03.2020 14:04 12,6 C 15,6 C 11,1 C 50 % 1012,5 hPa 0,0 l/m 2 min 0 min 638 W/m 38,6 km/h (5 Bft) 100,00 %
12.03.2020 14:06 12,5 C 15,6 C 11,1 C 50 % 1012,4 hPa 0,0 l/m 2 min 0 min 638 W/m 29,0 km/h (5 Bft) 97,83 %
12.03.2020 14:08 12,4 C 15,6 C 11,1 C 51 % 1012,5 hPa 0,0 l/m 2 min 0 min 628 W/m 22,5 km/h (4 Bft) 97,87 %
12.03.2020 14:10 12,4 C 15,6 C 11,1 C 51 % 1012,4 hPa 0,0 l/m 2 min 0 min 624 W/m 25,7 km/h (4 Bft) 100,00 %
12.03.2020 14:12 12,4 C 16,1 C 11,1 C 51 % 1012,4 hPa 0,0 l/m 2 min 0 min 627 W/m 25,7 km/h (4 Bft) 100,00 %
12.03.2020 14:14 12,4 C 15,6 C 11,1 C 51 % 1012,4 hPa 0,0 l/m 2 min 0 min 626 W/m 22,5 km/h (4 Bft) 100,00 %
12.03.2020 14:16 12,4 C 15,6 C 11,1 C 50 % 1012,4 hPa 0,0 l/m 2 min 0 min 619 W/m 29,0 km/h (5 Bft) 100,00 %
12.03.2020 14:18 12,4 C 15,6 C 11,1 C 49 % 1012,4 hPa 0,0 l/m 2 min 0 min 614 W/m 22,5 km/h (4 Bft) 100,00 %
12.03.2020 14:20 12,4 C 16,7 C 11,7 C 49 % 1012,3 hPa 0,0 l/m 2 min 0 min 610 W/m 19,3 km/h (3 Bft) 100,00 %
12.03.2020 14:22 12,4 C 15,6 C 11,1 C 48 % 1012,4 hPa 0,0 l/m 2 min 0 min 606 W/m 32,2 km/h (5 Bft) 100,00 %
12.03.2020 14:24 12,4 C 16,1 C 11,1 C 49 % 1012,3 hPa 0,0 l/m 2 min 0 min 604 W/m 16,1 km/h (3 Bft) 100,00 %
12.03.2020 14:26 12,5 C 16,7 C 11,1 C 50 % 1012,3 hPa 0,0 l/m 2 min 0 min 600 W/m 16,1 km/h (3 Bft) 100,00 %
12.03.2020 14:28 12,5 C 16,7 C 11,7 C 50 % 1012,3 hPa 0,0 l/m 2 min 0 min 598 W/m 16,1 km/h (3 Bft) 95,65 %
12.03.2020 14:30 12,6 C 16,7 C 11,7 C 49 % 1012,2 hPa 0,0 l/m 2 min 0 min 594 W/m 6,4 km/h (2 Bft) 97,87 %
12.03.2020 14:32 12,6 C 16,1 C 11,7 C 50 % 1012,3 hPa 0,0 l/m 2 min 0 min 592 W/m 22,5 km/h (4 Bft) 95,74 %
12.03.2020 14:34 12,6 C 16,7 C 11,7 C 49 % 1012,2 hPa 0,0 l/m 2 min 0 min 586 W/m 9,7 km/h (2 Bft) 97,87 %
12.03.2020 14:36 12,6 C 16,1 C 11,7 C 50 % 1012,2 hPa 0,0 l/m 2 min 0 min 587 W/m 22,5 km/h (4 Bft) 97,87 %
12.03.2020 14:38 12,6 C 16,7 C 11,7 C 50 % 1012,1 hPa 0,0 l/m 2 min 0 min 584 W/m 19,3 km/h (3 Bft) 95,74 %
12.03.2020 14:40 12,7 C 16,7 C 11,7 C 50 % 1012,1 hPa 0,0 l/m 2 min 0 min 583 W/m 9,7 km/h (2 Bft) 97,83 %
12.03.2020 14:42 12,7 C 16,7 C 11,7 C 51 % 1012,1 hPa 0,0 l/m 2 min 0 min 574 W/m 16,1 km/h (3 Bft) 95,74 %
12.03.2020 14:44 12,8 C 16,7 C 11,7 C 51 % 1012,0 hPa 0,0 l/m 2 min 0 min 568 W/m 12,9 km/h (3 Bft) 97,87 %
12.03.2020 14:46 12,8 C 16,7 C 11,7 C 51 % 1012,1 hPa 0,0 l/m 2 min 0 min 572 W/m 19,3 km/h (3 Bft) 97,87 %
12.03.2020 14:48 12,8 C 16,7 C 11,7 C 50 % 1012,0 hPa 0,0 l/m 2 min 0 min 575 W/m 19,3 km/h (3 Bft) 95,74 %
12.03.2020 14:50 12,8 C 16,7 C 11,7 C 51 % 1012,0 hPa 0,0 l/m 2 min 0 min 585 W/m 12,9 km/h (3 Bft) 93,62 %
12.03.2020 14:52 12,8 C 17,2 C 11,7 C 51 % 1012,0 hPa 0,0 l/m 2 min 0 min 576 W/m 19,3 km/h (3 Bft) 95,65 %
12.03.2020 14:54 12,9 C 14,4 C 11,7 C 52 % 1012,0 hPa 0,0 l/m 2 min 0 min 563 W/m 29,0 km/h (5 Bft) 95,74 %
12.03.2020 14:56 12,8 C 13,3 C 11,1 C 51 % 1012,0 hPa 0,0 l/m 2 min 0 min 269 W/m 16,1 km/h (3 Bft) 95,74 %
12.03.2020 14:58 12,7 C 15,0 C 11,1 C 51 % 1012,0 hPa 0,0 l/m 0 min 0 min 135 W/m 22,5 km/h (4 Bft) 97,87 %
12.03.2020 15:00 12,7 C 14,4 C 11,1 C 52 % 1012,1 hPa 0,0 l/m 2 min 0 min 535 W/m 19,3 km/h (3 Bft) 95,74 %
12.03.2020 15:02 12,6 C 14,4 C 11,1 C 52 % 1012,0 hPa 0,0 l/m 0 min 0 min 156 W/m 29,0 km/h (5 Bft) 95,74 %
12.03.2020 15:04 12,6 C 13,9 C 11,7 C 52 % 1012,0 hPa 0,0 l/m 0 min 0 min 156 W/m 22,5 km/h (4 Bft) 95,65 %
12.03.2020 15:06 12,5 C 12,2 C 11,1 C 51 % 1012,0 hPa 0,0 l/m 0 min 0 min 148 W/m 16,1 km/h (3 Bft) 95,74 %
12.03.2020 15:08 12,4 C 12,2 C 11,1 C 52 % 1012,0 hPa 0,0 l/m 0 min 0 min 195 W/m 25,7 km/h (4 Bft) 97,87 %
12.03.2020 15:10 12,3 C 13,3 C 11,1 C 53 % 1012,0 hPa 0,0 l/m 0 min 0 min 219 W/m 12,9 km/h (3 Bft) 95,74 %
12.03.2020 15:12 12,3 C 15,6 C 11,7 C 54 % 1012,0 hPa 0,0 l/m 2 min 0 min 479 W/m 19,3 km/h (3 Bft) 97,87 %
12.03.2020 15:14 12,3 C 16,1 C 12,2 C 53 % 1011,8 hPa 0,0 l/m 2 min 0 min 613 W/m 22,5 km/h (4 Bft) 97,87 %
12.03.2020 15:16 12,4 C 15,6 C 12,2 C 53 % 1011,8 hPa 0,0 l/m 2 min 0 min 599 W/m 22,5 km/h (4 Bft) 97,83 %
12.03.2020 15:18 12,4 C 13,9 C 11,7 C 54 % 1012,0 hPa 0,0 l/m 2 min 0 min 354 W/m 19,3 km/h (3 Bft) 97,87 %
12.03.2020 15:20 12,4 C 12,2 C 11,7 C 52 % 1011,9 hPa 0,0 l/m 0 min 0 min 172 W/m 16,1 km/h (3 Bft) 97,87 %
12.03.2020 15:22 12,3 C 11,7 C 11,1 C 52 % 1011,9 hPa 0,0 l/m 0 min 0 min 189 W/m 22,5 km/h (4 Bft) 97,87 %
12.03.2020 15:24 12,2 C 12,8 C 11,7 C 51 % 1011,9 hPa 0,0 l/m 2 min 0 min 258 W/m 19,3 km/h (3 Bft) 97,87 %
12.03.2020 15:26 12,2 C 12,2 C 11,1 C 52 % 1011,9 hPa 0,0 l/m 2 min 0 min 261 W/m 22,5 km/h (4 Bft) 97,83 %
12.03.2020 15:28 12,1 C 12,8 C 11,7 C 52 % 1011,9 hPa 0,0 l/m 0 min 0 min 188 W/m 16,1 km/h (3 Bft) 97,87 %
12.03.2020 15:30 12,1 C 13,9 C 11,7 C 51 % 1011,8 hPa 0,0 l/m 2 min 0 min 413 W/m 29,0 km/h (5 Bft) 97,87 %
12.03.2020 15:32 12,1 C 13,9 C 11,7 C 52 % 1011,9 hPa 0,0 l/m 2 min 0 min 561 W/m 19,3 km/h (3 Bft) 100,00 %
12.03.2020 15:34 12,0 C 12,2 C 11,7 C 52 % 1011,9 hPa 0,0 l/m 0 min 0 min 184 W/m 19,3 km/h (3 Bft) 100,00 %
12.03.2020 15:36 11,9 C 11,7 C 11,1 C 53 % 1011,9 hPa 0,0 l/m 0 min 0 min 143 W/m 16,1 km/h (3 Bft) 97,87 %
12.03.2020 15:38 11,9 C 12,2 C 11,1 C 52 % 1011,9 hPa 0,0 l/m 0 min 0 min 161 W/m 25,7 km/h (4 Bft) 100,00 %
12.03.2020 15:40 11,8 C 12,8 C 11,1 C 52 % 1011,9 hPa 0,0 l/m 2 min 0 min 465 W/m 22,5 km/h (4 Bft) 97,87 %
12.03.2020 15:42 11,8 C 12,8 C 11,1 C 52 % 1011,8 hPa 0,0 l/m 2 min 0 min 221 W/m 22,5 km/h (4 Bft) 100,00 %
12.03.2020 15:44 11,8 C 12,2 C 11,1 C 52 % 1011,8 hPa 0,0 l/m 0 min 0 min 182 W/m 38,6 km/h (5 Bft) 100,00 %
12.03.2020 15:46 11,7 C 12,8 C 11,1 C 52 % 1011,9 hPa 0,0 l/m 0 min 0 min 164 W/m 19,3 km/h (3 Bft) 100,00 %
12.03.2020 15:48 11,7 C 13,9 C 11,1 C 52 % 1011,8 hPa 0,0 l/m 2 min 0 min 470 W/m 22,5 km/h (4 Bft) 100,00 %
12.03.2020 15:50 11,7 C 14,4 C 11,1 C 53 % 1011,8 hPa 0,0 l/m 2 min 0 min 447 W/m 16,1 km/h (3 Bft) 100,00 %
12.03.2020 15:52 11,7 C 12,2 C 11,1 C 53 % 1011,7 hPa 0,0 l/m 2 min 0 min 262 W/m 48,3 km/h (6 Bft) 100,00 %
12.03.2020 15:54 11,7 C 12,2 C 11,1 C 52 % 1011,7 hPa 0,0 l/m 0 min 0 min 152 W/m 19,3 km/h (3 Bft) 100,00 %
12.03.2020 15:56 11,7 C 13,9 C 11,1 C 54 % 1011,7 hPa 0,0 l/m 2 min 0 min 370 W/m 12,9 km/h (3 Bft) 100,00 %
12.03.2020 15:58 11,7 C 13,9 C 11,1 C 54 % 1011,5 hPa 0,0 l/m 2 min 0 min 419 W/m 25,7 km/h (4 Bft) 97,87 %
12.03.2020 16:00 11,7 C 12,8 C 11,1 C 53 % 1011,6 hPa 0,0 l/m 2 min 0 min 260 W/m 35,4 km/h (5 Bft) 97,87 %
12.03.2020 16:02 11,7 C 13,3 C 11,1 C 52 % 1011,6 hPa 0,0 l/m 2 min 0 min 297 W/m 22,5 km/h (4 Bft) 97,83 %
12.03.2020 16:04 11,7 C 13,9 C 11,1 C 53 % 1011,5 hPa 0,0 l/m 2 min 0 min 412 W/m 22,5 km/h (4 Bft) 100,00 %
12.03.2020 16:06 11,7 C 14,4 C 11,7 C 54 % 1011,5 hPa 0,0 l/m 2 min 0 min 399 W/m 16,1 km/h (3 Bft) 97,87 %
12.03.2020 16:08 11,8 C 14,4 C 11,7 C 54 % 1011,5 hPa 0,0 l/m 2 min 0 min 381 W/m 16,1 km/h (3 Bft) 100,00 %
12.03.2020 16:10 11,8 C 13,9 C 11,7 C 54 % 1011,5 hPa 0,0 l/m 2 min 0 min 381 W/m 22,5 km/h (4 Bft) 100,00 %
12.03.2020 16:12 11,8 C 14,4 C 12,8 C 55 % 1011,4 hPa 0,0 l/m 2 min 0 min 383 W/m 29,0 km/h (5 Bft) 100,00 %
12.03.2020 16:14 11,9 C 14,4 C 13,9 C 55 % 1011,4 hPa 0,0 l/m 2 min 0 min 359 W/m 9,7 km/h (2 Bft) 100,00 %
12.03.2020 16:16 11,9 C 14,4 C 14,4 C 55 % 1011,4 hPa 0,0 l/m 2 min 0 min 349 W/m 22,5 km/h (4 Bft) 100,00 %
12.03.2020 16:18 11,9 C 13,9 C 13,3 C 54 % 1011,4 hPa 0,0 l/m 2 min 0 min 345 W/m 22,5 km/h (4 Bft) 100,00 %
12.03.2020 16:20 11,9 C 13,9 C 13,3 C 54 % 1011,3 hPa 0,0 l/m 2 min 0 min 339 W/m 12,9 km/h (3 Bft) 97,87 %
12.03.2020 16:22 12,0 C 13,9 C 13,3 C 55 % 1011,3 hPa 0,0 l/m 2 min 0 min 334 W/m 22,5 km/h (4 Bft) 100,00 %
12.03.2020 16:24 12,0 C 13,9 C 13,3 C 55 % 1011,2 hPa 0,0 l/m 2 min 0 min 329 W/m 19,3 km/h (3 Bft) 100,00 %
12.03.2020 16:26 11,9 C 12,2 C 11,7 C 54 % 1011,2 hPa 0,0 l/m 2 min 0 min 220 W/m 19,3 km/h (3 Bft) 100,00 %
12.03.2020 16:28 11,9 C 11,7 C 11,1 C 54 % 1011,2 hPa 0,0 l/m 0 min 0 min 102 W/m 32,2 km/h (5 Bft) 100,00 %
12.03.2020 16:30 11,9 C 12,2 C 11,7 C 55 % 1011,1 hPa 0,0 l/m 2 min 0 min 182 W/m 19,3 km/h (3 Bft) 100,00 %
12.03.2020 16:32 11,8 C 12,2 C 11,1 C 55 % 1011,1 hPa 0,0 l/m 2 min 0 min 274 W/m 22,5 km/h (4 Bft) 100,00 %
12.03.2020 16:34 11,8 C 11,7 C 11,1 C 55 % 1011,0 hPa 0,0 l/m 2 min 0 min 148 W/m 12,9 km/h (3 Bft) 100,00 %
12.03.2020 16:36 11,7 C 11,1 C 10,6 C 55 % 1011,1 hPa 0,0 l/m 0 min 0 min 124 W/m 32,2 km/h (5 Bft) 100,00 %
12.03.2020 16:38 11,6 C 11,1 C 10,6 C 55 % 1011,0 hPa 0,0 l/m 0 min 0 min 114 W/m 19,3 km/h (3 Bft) 100,00 %
12.03.2020 16:40 11,6 C 10,6 C 10,0 C 55 % 1011,1 hPa 0,0 l/m 0 min 0 min 94 W/m 12,9 km/h (3 Bft) 97,87 %
12.03.2020 16:42 11,5 C 10,6 C 10,0 C 56 % 1011,0 hPa 0,0 l/m 0 min 0 min 82 W/m 12,9 km/h (3 Bft) 100,00 %
12.03.2020 16:44 11,4 C 10,6 C 10,0 C 56 % 1011,0 hPa 0,0 l/m 0 min 0 min 70 W/m 12,9 km/h (3 Bft) 100,00 %
12.03.2020 16:46 11,3 C 10,6 C 10,0 C 56 % 1011,0 hPa 0,0 l/m 0 min 0 min 68 W/m 16,1 km/h (3 Bft) 100,00 %
12.03.2020 16:48 11,3 C 10,6 C 10,0 C 56 % 1011,1 hPa 0,0 l/m 0 min 0 min 79 W/m 16,1 km/h (3 Bft) 97,87 %
12.03.2020 16:50 11,2 C 10,6 C 10,0 C 57 % 1011,1 hPa 0,0 l/m 0 min 0 min 82 W/m 12,9 km/h (3 Bft) 95,65 %
12.03.2020 16:52 11,2 C 10,6 C 10,0 C 57 % 1011,1 hPa 0,0 l/m 0 min 0 min 76 W/m 12,9 km/h (3 Bft) 95,74 %
12.03.2020 16:54 11,1 C 10,6 C 10,0 C 57 % 1011,1 hPa 0,0 l/m 0 min 0 min 78 W/m 22,5 km/h (4 Bft) 100,00 %
12.03.2020 16:56 11,1 C 10,6 C 10,0 C 57 % 1011,1 hPa 0,0 l/m 0 min 0 min 89 W/m 25,7 km/h (4 Bft) 97,87 %
12.03.2020 16:58 11,1 C 10,6 C 10,0 C 57 % 1011,0 hPa 0,0 l/m 0 min 0 min 104 W/m 22,5 km/h (4 Bft) 93,62 %
12.03.2020 17:00 11,0 C 10,6 C 10,0 C 59 % 1011,0 hPa 0,0 l/m 0 min 0 min 107 W/m 25,7 km/h (4 Bft) 95,65 %
12.03.2020 17:02 10,9 C 10,6 C 10,0 C 58 % 1011,0 hPa 0,0 l/m 0 min 0 min 81 W/m 22,5 km/h (4 Bft) 93,62 %
12.03.2020 17:04 10,9 C 10,0 C 10,0 C 58 % 1011,0 hPa 0,0 l/m 0 min 0 min 76 W/m 16,1 km/h (3 Bft) 97,87 %
12.03.2020 17:06 10,9 C 10,0 C 9,4 C 58 % 1011,1 hPa 0,0 l/m 0 min 0 min 63 W/m 19,3 km/h (3 Bft) 93,62 %
12.03.2020 17:08 10,8 C 10,0 C 9,4 C 58 % 1011,0 hPa 0,0 l/m 0 min 0 min 41 W/m 25,7 km/h (4 Bft) 89,36 %
12.03.2020 17:10 10,8 C 10,0 C 9,4 C 58 % 1011,1 hPa 0,0 l/m 0 min 0 min 34 W/m 12,9 km/h (3 Bft) 91,49 %
12.03.2020 17:12 10,7 C 10,0 C 9,4 C 58 % 1011,0 hPa 0,0 l/m 0 min 0 min 32 W/m 12,9 km/h (3 Bft) 95,65 %
12.03.2020 17:14 10,7 C 10,0 C 9,4 C 59 % 1011,0 hPa 0,0 l/m 0 min 0 min 33 W/m 16,1 km/h (3 Bft) 95,74 %
12.03.2020 17:16 10,7 C 10,0 C 9,4 C 59 % 1011,0 hPa 0,0 l/m 0 min 0 min 28 W/m 12,9 km/h (3 Bft) 95,74 %
12.03.2020 17:18 10,7 C 9,4 C 9,4 C 60 % 1011,1 hPa 0,0 l/m 0 min 0 min 15 W/m 6,4 km/h (2 Bft) 95,74 %
12.03.2020 17:20 10,6 C 9,4 C 9,4 C 59 % 1011,1 hPa 0,0 l/m 0 min 0 min 11 W/m 22,5 km/h (4 Bft) 95,74 %
12.03.2020 17:22 10,6 C 9,4 C 9,4 C 59 % 1011,2 hPa 0,0 l/m 0 min 0 min 8 W/m 12,9 km/h (3 Bft) 95,65 %
12.03.2020 17:24 10,6 C 9,4 C 9,4 C 60 % 1011,5 hPa 0,0 l/m 0 min 0 min 8 W/m 16,1 km/h (3 Bft) 95,74 %
12.03.2020 17:26 10,6 C 8,9 C 8,3 C 62 % 1011,9 hPa 0,0 l/m 0 min 2 min 14 W/m 32,2 km/h (5 Bft) 93,62 %
12.03.2020 17:28 10,3 C 7,8 C 7,2 C 66 % 1011,9 hPa 0,0 l/m 0 min 2 min 21 W/m 38,6 km/h (5 Bft) 93,62 %
12.03.2020 17:30 10,0 C 7,2 C 6,1 C 68 % 1011,9 hPa 0,0 l/m 0 min 2 min 34 W/m 45,1 km/h (6 Bft) 93,62 %
12.03.2020 17:32 9,8 C 7,2 C 6,1 C 69 % 1011,8 hPa 0,0 l/m 0 min 2 min 50 W/m 29,0 km/h (5 Bft) 95,74 %
12.03.2020 17:34 9,6 C 7,2 C 6,7 C 70 % 1011,8 hPa 0,0 l/m 0 min 2 min 68 W/m 38,6 km/h (5 Bft) 95,65 %
12.03.2020 17:36 9,3 C 7,2 C 6,7 C 71 % 1011,8 hPa 0,0 l/m 2 min 2 min 74 W/m 35,4 km/h (5 Bft) 91,49 %
12.03.2020 17:38 9,2 C 7,2 C 7,2 C 72 % 1011,7 hPa 0,0 l/m 2 min 2 min 78 W/m 38,6 km/h (5 Bft) 93,62 %
12.03.2020 17:40 9,0 C 7,8 C 7,2 C 72 % 1012,0 hPa 0,0 l/m 2 min 2 min 70 W/m 32,2 km/h (5 Bft) 93,62 %
12.03.2020 17:42 8,9 C 7,8 C 7,2 C 73 % 1011,9 hPa 0,0 l/m 0 min 2 min 59 W/m 19,3 km/h (3 Bft) 91,49 %
12.03.2020 17:44 8,8 C 7,8 C 7,2 C 73 % 1011,9 hPa 0,0 l/m 2 min 2 min 60 W/m 12,9 km/h (3 Bft) 91,49 %
12.03.2020 17:46 8,8 C 7,8 C 7,2 C 74 % 1012,0 hPa 0,0 l/m 0 min 0 min 55 W/m 19,3 km/h (3 Bft) 93,48 %
12.03.2020 17:48 8,7 C 7,8 C 7,2 C 74 % 1012,0 hPa 0,0 l/m 0 min 0 min 33 W/m 16,1 km/h (3 Bft) 95,74 %
12.03.2020 17:50 8,7 C 7,8 C 7,2 C 74 % 1012,0 hPa 0,0 l/m 0 min 0 min 20 W/m 19,3 km/h (3 Bft) 97,87 %
12.03.2020 17:52 8,6 C 7,2 C 7,2 C 74 % 1012,0 hPa 0,0 l/m 0 min 0 min 20 W/m 35,4 km/h (5 Bft) 95,74 %
12.03.2020 17:54 8,6 C 7,2 C 7,2 C 74 % 1012,0 hPa 0,0 l/m 0 min 0 min 24 W/m 22,5 km/h (4 Bft) 97,87 %
12.03.2020 17:56 8,5 C 7,2 C 7,2 C 74 % 1012,0 hPa 0,0 l/m 0 min 0 min 25 W/m 16,1 km/h (3 Bft) 97,87 %
12.03.2020 17:58 8,4 C 7,2 C 7,2 C 75 % 1012,0 hPa 0,0 l/m 0 min 0 min 24 W/m 3,2 km/h (1 Bft) 95,65 %
12.03.2020 18:00 8,4 C 7,2 C 6,7 C 75 % 1012,0 hPa 0,0 l/m 0 min 0 min 22 W/m 6,4 km/h (2 Bft) 97,87 %
12.03.2020 18:02 8,3 C 7,2 C 6,7 C 75 % 1012,0 hPa 0,0 l/m 0 min 0 min 21 W/m 0,0 km/h (0 Bft) 95,74 %
12.03.2020 18:04 8,3 C 7,2 C 6,7 C 75 % 1011,9 hPa 0,0 l/m 0 min 0 min 20 W/m 6,4 km/h (2 Bft) 97,87 %
12.03.2020 18:08 8,2 C 6,7 C 6,7 C 76 % 1011,9 hPa 0,0 l/m 0 min 0 min 19 W/m 19,3 km/h (3 Bft) 95,74 %
12.03.2020 18:10 8,2 C 6,7 C 6,7 C 76 % 1011,9 hPa 0,0 l/m 0 min 0 min 18 W/m 0,0 km/h (0 Bft) 95,65 %
12.03.2020 18:12 8,2 C 6,7 C 6,1 C 76 % 1012,0 hPa 0,0 l/m 0 min 0 min 17 W/m 0,0 km/h (0 Bft) 97,87 %
12.03.2020 18:14 8,1 C 6,7 C 6,1 C 77 % 1011,9 hPa 0,0 l/m 0 min 0 min 16 W/m 0,0 km/h (0 Bft) 97,87 %
12.03.2020 18:16 8,1 C 6,7 C 6,1 C 77 % 1012,0 hPa 0,0 l/m 0 min 0 min 14 W/m 0,0 km/h (0 Bft) 97,87 %
12.03.2020 18:18 8,0 C 6,7 C 6,1 C 77 % 1012,0 hPa 0,0 l/m 0 min 0 min 13 W/m 3,2 km/h (1 Bft) 97,87 %
12.03.2020 18:20 7,9 C 6,1 C 6,1 C 77 % 1012,0 hPa 0,0 l/m 0 min 0 min 12 W/m 3,2 km/h (1 Bft) 95,74 %
12.03.2020 18:22 7,9 C 6,1 C 6,1 C 77 % 1011,9 hPa 0,0 l/m 0 min 0 min 10 W/m 0,0 km/h (0 Bft) 97,83 %
12.03.2020 18:24 7,8 C 6,1 C 6,1 C 77 % 1012,0 hPa 0,0 l/m 0 min 0 min 9 W/m 0,0 km/h (0 Bft) 97,87 %
12.03.2020 18:26 7,8 C 6,1 C 6,1 C 78 % 1012,0 hPa 0,0 l/m 0 min 0 min 8 W/m 3,2 km/h (1 Bft) 97,87 %
12.03.2020 18:28 7,7 C 6,1 C 6,1 C 78 % 1012,0 hPa 0,0 l/m 0 min 0 min 7 W/m 3,2 km/h (1 Bft) 97,87 %
12.03.2020 18:30 7,7 C 6,1 C 6,1 C 78 % 1011,9 hPa 0,0 l/m 0 min 0 min 6 W/m 0,0 km/h (0 Bft) 97,87 %
12.03.2020 18:32 7,6 C 6,1 C 6,1 C 78 % 1011,9 hPa 0,0 l/m 0 min 0 min 5 W/m 0,0 km/h (0 Bft) 97,83 %
12.03.2020 18:34 7,6 C 6,1 C 6,1 C 78 % 1011,9 hPa 0,0 l/m 0 min 0 min 5 W/m 0,0 km/h (0 Bft) 97,87 %
12.03.2020 18:36 7,5 C 6,1 C 6,1 C 78 % 1011,9 hPa 0,0 l/m 0 min 0 min 2 W/m 6,4 km/h (2 Bft) 97,87 %
12.03.2020 18:38 7,4 C 6,1 C 5,6 C 78 % 1011,9 hPa 0,0 l/m 0 min 0 min 0 W/m 0,0 km/h (0 Bft) 97,87 %
12.03.2020 18:40 7,4 C 6,1 C 6,1 C 78 % 1011,9 hPa 0,0 l/m 0 min 0 min 0 W/m 16,1 km/h (3 Bft) 97,87 %
12.03.2020 18:42 7,3 C 6,1 C 5,6 C 78 % 1011,9 hPa 0,0 l/m 0 min 0 min 0 W/m 0,0 km/h (0 Bft) 97,87 %
12.03.2020 18:44 7,3 C 6,1 C 6,1 C 78 % 1011,9 hPa 0,0 l/m 0 min 0 min 0 W/m 3,2 km/h (1 Bft) 97,83 %
12.03.2020 18:46 7,3 C 6,1 C 6,1 C 78 % 1011,9 hPa 0,0 l/m 0 min 0 min 0 W/m 3,2 km/h (1 Bft) 95,74 %
12.03.2020 18:48 7,3 C 6,1 C 6,1 C 78 % 1011,9 hPa 0,0 l/m 0 min 0 min 0 W/m 0,0 km/h (0 Bft) 97,87 %
12.03.2020 18:50 7,3 C 6,7 C 6,1 C 78 % 1011,9 hPa 0,0 l/m 0 min 0 min 0 W/m 16,1 km/h (3 Bft) 97,87 %
12.03.2020 18:52 7,3 C 6,7 C 6,1 C 78 % 1011,9 hPa 0,0 l/m 0 min 0 min 0 W/m 0,0 km/h (0 Bft) 97,87 %
12.03.2020 18:54 7,3 C 6,7 C 6,1 C 78 % 1011,9 hPa 0,0 l/m 0 min 0 min 0 W/m 3,2 km/h (1 Bft) 100,00 %
12.03.2020 18:56 7,3 C 6,7 C 6,1 C 78 % 1011,9 hPa 0,0 l/m 0 min 0 min 0 W/m 6,4 km/h (2 Bft) 97,83 %
12.03.2020 18:58 7,3 C 6,7 C 6,1 C 78 % 1011,9 hPa 0,0 l/m 0 min 0 min 0 W/m 0,0 km/h (0 Bft) 100,00 %
12.03.2020 19:00 7,3 C 6,7 C 6,1 C 78 % 1011,9 hPa 0,0 l/m 0 min 0 min 0 W/m 0,0 km/h (0 Bft) 100,00 %
12.03.2020 19:02 7,3 C 6,7 C 6,1 C 78 % 1011,8 hPa 0,0 l/m 0 min 0 min 0 W/m 12,9 km/h (3 Bft) 97,87 %
12.03.2020 19:04 7,3 C 6,7 C 6,1 C 78 % 1011,8 hPa 0,0 l/m 0 min 0 min 0 W/m 0,0 km/h (0 Bft) 97,87 %
12.03.2020 19:06 7,3 C 6,7 C 6,1 C 78 % 1011,8 hPa 0,0 l/m 0 min 0 min 0 W/m 0,0 km/h (0 Bft) 100,00 %
12.03.2020 19:08 7,3 C 6,7 C 6,1 C 78 % 1011,8 hPa 0,0 l/m 0 min 0 min 0 W/m 0,0 km/h (0 Bft) 97,83 %
12.03.2020 19:10 7,3 C 6,7 C 6,1 C 78 % 1011,9 hPa 0,0 l/m 0 min 0 min 0 W/m 12,9 km/h (3 Bft) 100,00 %
12.03.2020 19:12 7,3 C 6,7 C 6,1 C 77 % 1011,8 hPa 0,0 l/m 0 min 0 min 0 W/m 0,0 km/h (0 Bft) 93,62 %
12.03.2020 19:14 7,3 C 6,7 C 6,1 C 78 % 1011,8 hPa 0,0 l/m 0 min 0 min 0 W/m 3,2 km/h (1 Bft) 100,00 %
12.03.2020 19:16 7,3 C 6,7 C 6,1 C 78 % 1011,9 hPa 0,0 l/m 0 min 0 min 0 W/m 6,4 km/h (2 Bft) 100,00 %
12.03.2020 19:18 7,3 C 6,7 C 6,1 C 78 % 1011,8 hPa 0,0 l/m 0 min 0 min 0 W/m 6,4 km/h (2 Bft) 97,87 %
12.03.2020 19:20 7,3 C 6,7 C 6,1 C 77 % 1011,8 hPa 0,0 l/m 0 min 0 min 0 W/m 3,2 km/h (1 Bft) 95,65 %
12.03.2020 19:22 7,3 C 6,7 C 6,1 C 77 % 1011,9 hPa 0,0 l/m 0 min 0 min 0 W/m 6,4 km/h (2 Bft) 100,00 %
12.03.2020 19:24 7,3 C 6,7 C 6,1 C 77 % 1011,8 hPa 0,0 l/m 0 min 0 min 0 W/m 16,1 km/h (3 Bft) 97,87 %
12.03.2020 19:26 7,3 C 6,7 C 6,1 C 77 % 1011,8 hPa 0,0 l/m 0 min 0 min 0 W/m 0,0 km/h (0 Bft) 95,74 %
12.03.2020 19:28 7,3 C 6,7 C 6,1 C 77 % 1011,8 hPa 0,0 l/m 0 min 0 min 0 W/m 0,0 km/h (0 Bft) 95,74 %
12.03.2020 19:30 7,3 C 6,7 C 6,1 C 77 % 1011,8 hPa 0,0 l/m 0 min 0 min 0 W/m 0,0 km/h (0 Bft) 97,83 %
12.03.2020 19:32 7,3 C 6,7 C 6,1 C 77 % 1011,9 hPa 0,0 l/m 0 min 0 min 0 W/m 0,0 km/h (0 Bft) 97,87 %
12.03.2020 19:34 7,3 C 6,7 C 6,1 C 77 % 1011,8 hPa 0,0 l/m 0 min 0 min 0 W/m 0,0 km/h (0 Bft) 97,87 %
12.03.2020 19:36 7,3 C 6,7 C 6,1 C 77 % 1011,9 hPa 0,0 l/m 0 min 0 min 0 W/m 16,1 km/h (3 Bft) 97,87 %
12.03.2020 19:38 7,3 C 6,7 C 6,1 C 77 % 1011,8 hPa 0,0 l/m 0 min 0 min 0 W/m 19,3 km/h (3 Bft) 97,87 %
12.03.2020 19:40 7,3 C 6,7 C 6,7 C 77 % 1011,8 hPa 0,0 l/m 0 min 0 min 0 W/m 19,3 km/h (3 Bft) 95,74 %
12.03.2020 19:42 7,4 C 6,7 C 6,7 C 76 % 1011,9 hPa 0,0 l/m 0 min 0 min 0 W/m 12,9 km/h (3 Bft) 95,65 %
12.03.2020 19:44 7,4 C 6,7 C 6,1 C 76 % 1011,9 hPa 0,0 l/m 0 min 0 min 0 W/m 12,9 km/h (3 Bft) 97,87 %
12.03.2020 19:46 7,4 C 7,2 C 6,7 C 76 % 1011,9 hPa 0,0 l/m 0 min 0 min 0 W/m 9,7 km/h (2 Bft) 97,87 %
12.03.2020 19:48 7,4 C 6,7 C 6,7 C 76 % 1011,8 hPa 0,0 l/m 0 min 0 min 0 W/m 19,3 km/h (3 Bft) 95,74 %
12.03.2020 19:50 7,5 C 7,2 C 6,7 C 75 % 1011,8 hPa 0,0 l/m 0 min 0 min 0 W/m 16,1 km/h (3 Bft) 97,87 %
12.03.2020 19:52 7,5 C 7,2 C 6,7 C 75 % 1011,9 hPa 0,0 l/m 0 min 0 min 0 W/m 3,2 km/h (1 Bft) 95,74 %
12.03.2020 19:54 7,6 C 7,2 C 6,7 C 75 % 1011,9 hPa 0,0 l/m 0 min 0 min 0 W/m 22,5 km/h (4 Bft) 97,83 %
12.03.2020 19:56 7,6 C 7,2 C 6,7 C 74 % 1011,9 hPa 0,0 l/m 0 min 0 min 0 W/m 12,9 km/h (3 Bft) 97,87 %
12.03.2020 19:58 7,6 C 7,2 C 6,7 C 74 % 1011,9 hPa 0,0 l/m 0 min 0 min 0 W/m 12,9 km/h (3 Bft) 100,00 %
12.03.2020 20:00 7,7 C 7,2 C 6,7 C 74 % 1011,9 hPa 0,0 l/m 0 min 0 min 0 W/m 16,1 km/h (3 Bft) 100,00 %
12.03.2020 20:02 7,7 C 7,2 C 6,7 C 74 % 1011,9 hPa 0,0 l/m 0 min 0 min 0 W/m 9,7 km/h (2 Bft) 97,87 %
12.03.2020 20:04 7,7 C 7,2 C 6,7 C 74 % 1012,0 hPa 0,0 l/m 0 min 0 min 0 W/m 12,9 km/h (3 Bft) 97,87 %
12.03.2020 20:06 7,7 C 7,2 C 6,7 C 74 % 1012,0 hPa 0,0 l/m 0 min 0 min 0 W/m 3,2 km/h (1 Bft) 100,00 %
12.03.2020 20:08 7,8 C 7,2 C 6,7 C 73 % 1011,9 hPa 0,0 l/m 0 min 0 min 0 W/m 12,9 km/h (3 Bft) 97,87 %
12.03.2020 20:10 7,8 C 7,2 C 6,7 C 73 % 1011,8 hPa 0,0 l/m 0 min 0 min 0 W/m 25,7 km/h (4 Bft) 97,87 %
12.03.2020 20:12 7,8 C 7,2 C 6,7 C 73 % 1011,8 hPa 0,0 l/m 0 min 0 min 0 W/m 29,0 km/h (5 Bft) 97,87 %
12.03.2020 20:14 7,8 C 7,2 C 6,7 C 73 % 1011,8 hPa 0,0 l/m 0 min 0 min 0 W/m 16,1 km/h (3 Bft) 93,62 %
12.03.2020 20:16 7,8 C 7,2 C 6,7 C 73 % 1011,8 hPa 0,0 l/m 0 min 0 min 0 W/m 3,2 km/h (1 Bft) 97,87 %
12.03.2020 20:18 7,9 C 7,2 C 6,7 C 73 % 1011,7 hPa 0,0 l/m 0 min 0 min 0 W/m 16,1 km/h (3 Bft) 97,83 %
12.03.2020 20:20 7,9 C 7,2 C 6,7 C 73 % 1011,7 hPa 0,0 l/m 0 min 0 min 0 W/m 19,3 km/h (3 Bft) 97,62 %
12.03.2020 20:22 7,9 C 7,2 C 6,7 C 73 % 1011,8 hPa 0,0 l/m 0 min 0 min 0 W/m 32,2 km/h (5 Bft) 95,74 %
12.03.2020 20:24 7,9 C 7,2 C 6,7 C 73 % 1011,8 hPa 0,0 l/m 0 min 0 min 0 W/m 16,1 km/h (3 Bft) 98,18 %
12.03.2020 20:26 7,9 C 7,2 C 6,7 C 73 % 1011,8 hPa 0,0 l/m 0 min 0 min 0 W/m 16,1 km/h (3 Bft) 97,87 %
12.03.2020 20:28 7,9 C 7,2 C 6,7 C 73 % 1011,8 hPa 0,0 l/m 0 min 0 min 0 W/m 9,7 km/h (2 Bft) 97,37 %
12.03.2020 20:30 8,0 C 7,2 C 6,7 C 73 % 1011,8 hPa 0,0 l/m 0 min 0 min 0 W/m 19,3 km/h (3 Bft) 95,92 %
12.03.2020 20:32 8,0 C 7,2 C 6,7 C 72 % 1011,7 hPa 0,0 l/m 0 min 0 min 0 W/m 22,5 km/h (4 Bft) 97,87 %
12.03.2020 20:34 8,0 C 7,2 C 7,2 C 72 % 1011,5 hPa 0,0 l/m 0 min 0 min 0 W/m 22,5 km/h (4 Bft) 97,92 %
12.03.2020 20:36 8,1 C 7,2 C 6,7 C 71 % 1011,8 hPa 0,0 l/m 0 min 0 min 0 W/m 29,0 km/h (5 Bft) 97,87 %
12.03.2020 20:38 8,1 C 7,2 C 6,7 C 71 % 1011,7 hPa 0,0 l/m 0 min 0 min 0 W/m 16,1 km/h (3 Bft) 95,74 %
12.03.2020 20:40 8,1 C 7,8 C 7,2 C 70 % 1011,6 hPa 0,0 l/m 0 min 0 min 0 W/m 41,8 km/h (6 Bft) 97,87 %
12.03.2020 20:42 8,1 C 7,8 C 7,2 C 70 % 1011,6 hPa 0,0 l/m 0 min 0 min 0 W/m 35,4 km/h (5 Bft) 97,87 %
12.03.2020 20:44 8,1 C 7,2 C 6,7 C 70 % 1011,6 hPa 0,0 l/m 0 min 0 min 0 W/m 19,3 km/h (3 Bft) 97,92 %
12.03.2020 20:46 8,2 C 7,2 C 7,2 C 70 % 1011,7 hPa 0,0 l/m 0 min 0 min 0 W/m 22,5 km/h (4 Bft) 97,87 %
12.03.2020 20:48 8,2 C 7,2 C 7,2 C 70 % 1011,6 hPa 0,0 l/m 0 min 0 min 0 W/m 25,7 km/h (4 Bft) 97,56 %
12.03.2020 20:50 8,2 C 7,2 C 6,7 C 70 % 1011,7 hPa 0,0 l/m 0 min 0 min 0 W/m 16,1 km/h (3 Bft) 98,00 %
12.03.2020 20:52 8,2 C 7,2 C 6,7 C 71 % 1011,8 hPa 0,0 l/m 0 min 0 min 0 W/m 0,0 km/h (0 Bft) 97,96 %
12.03.2020 20:54 8,2 C 7,2 C 6,7 C 71 % 1011,8 hPa 0,0 l/m 0 min 0 min 0 W/m 9,7 km/h (2 Bft) 95,74 %
12.03.2020 20:56 8,1 C 7,2 C 6,7 C 71 % 1011,6 hPa 0,0 l/m 0 min 0 min 0 W/m 9,7 km/h (2 Bft) 100,00 %
12.03.2020 20:58 8,1 C 7,2 C 6,7 C 71 % 1011,7 hPa 0,0 l/m 0 min 0 min 0 W/m 16,1 km/h (3 Bft) 97,87 %
12.03.2020 21:00 8,1 C 7,2 C 6,7 C 72 % 1011,7 hPa 0,0 l/m 0 min 0 min 0 W/m 9,7 km/h (2 Bft) 97,87 %
12.03.2020 21:02 8,1 C 7,2 C 6,7 C 72 % 1011,7 hPa 0,0 l/m 0 min 0 min 0 W/m 25,7 km/h (4 Bft) 100,00 %
12.03.2020 21:04 8,1 C 7,2 C 6,7 C 72 % 1011,8 hPa 0,0 l/m 0 min 0 min 0 W/m 3,2 km/h (1 Bft) 97,92 %
12.03.2020 21:06 8,1 C 7,2 C 6,7 C 73 % 1011,7 hPa 0,0 l/m 0 min 0 min 0 W/m 12,9 km/h (3 Bft) 97,92 %
12.03.2020 21:08 8,0 C 7,2 C 6,7 C 73 % 1011,9 hPa 0,0 l/m 0 min 0 min 0 W/m 6,4 km/h (2 Bft) 100,00 %
12.03.2020 21:10 7,9 C 7,2 C 6,7 C 73 % 1011,9 hPa 0,0 l/m 0 min 0 min 0 W/m 16,1 km/h (3 Bft) 97,87 %
12.03.2020 21:12 7,9 C 7,2 C 6,7 C 74 % 1011,9 hPa 0,0 l/m 0 min 0 min 0 W/m 19,3 km/h (3 Bft) 100,00 %
12.03.2020 21:14 7,9 C 7,2 C 6,7 C 74 % 1011,9 hPa 0,0 l/m 0 min 0 min 0 W/m 29,0 km/h (5 Bft) 100,00 %
12.03.2020 21:16 7,9 C 7,2 C 6,7 C 74 % 1011,9 hPa 0,0 l/m 0 min 0 min 0 W/m 19,3 km/h (3 Bft) 100,00 %
12.03.2020 21:18 7,9 C 7,2 C 6,7 C 74 % 1011,9 hPa 0,0 l/m 0 min 0 min 0 W/m 16,1 km/h (3 Bft) 97,87 %
12.03.2020 21:20 7,9 C 6,7 C 6,7 C 75 % 1011,8 hPa 0,0 l/m 0 min 0 min 0 W/m 19,3 km/h (3 Bft) 100,00 %
12.03.2020 21:22 7,8 C 6,7 C 6,7 C 75 % 1011,9 hPa 0,0 l/m 0 min 0 min 0 W/m 22,5 km/h (4 Bft) 95,74 %
12.03.2020 21:24 7,8 C 6,7 C 6,7 C 75 % 1011,8 hPa 0,0 l/m 0 min 0 min 0 W/m 19,3 km/h (3 Bft) 100,00 %
12.03.2020 21:26 7,8 C 6,7 C 6,1 C 75 % 1011,8 hPa 0,0 l/m 0 min 0 min 0 W/m 6,4 km/h (2 Bft) 97,87 %
12.03.2020 21:28 7,7 C 6,7 C 6,1 C 75 % 1011,7 hPa 0,0 l/m 0 min 0 min 0 W/m 38,6 km/h (5 Bft) 97,87 %
12.03.2020 21:30 7,7 C 6,7 C 6,1 C 75 % 1011,8 hPa 0,0 l/m 0 min 0 min 0 W/m 25,7 km/h (4 Bft) 97,87 %
12.03.2020 21:32 7,7 C 6,7 C 6,1 C 75 % 1011,8 hPa 0,0 l/m 0 min 0 min 0 W/m 32,2 km/h (5 Bft) 100,00 %
12.03.2020 21:34 7,7 C 6,7 C 6,1 C 75 % 1011,8 hPa 0,0 l/m 0 min 0 min 0 W/m 19,3 km/h (3 Bft) 100,00 %
12.03.2020 21:36 7,6 C 6,7 C 6,1 C 75 % 1011,8 hPa 0,0 l/m 0 min 0 min 0 W/m 9,7 km/h (2 Bft) 97,44 %
12.03.2020 21:38 7,6 C 6,7 C 6,1 C 76 % 1011,9 hPa 0,0 l/m 0 min 0 min 0 W/m 12,9 km/h (3 Bft) 100,00 %
12.03.2020 21:40 7,6 C 6,7 C 6,1 C 76 % 1011,9 hPa 0,0 l/m 0 min 0 min 0 W/m 6,4 km/h (2 Bft) 100,00 %
12.03.2020 21:42 7,6 C 6,7 C 6,1 C 76 % 1012,0 hPa 0,0 l/m 0 min 0 min 0 W/m 16,1 km/h (3 Bft) 97,87 %
12.03.2020 21:44 7,5 C 6,7 C 6,1 C 76 % 1012,0 hPa 0,0 l/m 0 min 0 min 0 W/m 19,3 km/h (3 Bft) 97,92 %
12.03.2020 21:46 7,5 C 6,7 C 6,1 C 77 % 1012,0 hPa 0,0 l/m 0 min 0 min 0 W/m 22,5 km/h (4 Bft) 95,74 %
12.03.2020 21:48 7,4 C 6,7 C 6,1 C 77 % 1012,0 hPa 0,0 l/m 0 min 0 min 0 W/m 12,9 km/h (3 Bft) 97,87 %
12.03.2020 21:50 7,4 C 6,7 C 6,1 C 77 % 1011,9 hPa 0,0 l/m 0 min 0 min 0 W/m 19,3 km/h (3 Bft) 95,74 %
12.03.2020 21:52 7,4 C 6,7 C 6,1 C 78 % 1012,0 hPa 0,0 l/m 0 min 0 min 0 W/m 19,3 km/h (3 Bft) 91,67 %
12.03.2020 21:54 7,4 C 6,7 C 6,1 C 78 % 1012,0 hPa 0,0 l/m 0 min 0 min 0 W/m 12,9 km/h (3 Bft) 95,83 %
12.03.2020 21:56 7,4 C 6,7 C 6,1 C 78 % 1012,0 hPa 0,0 l/m 0 min 0 min 0 W/m 6,4 km/h (2 Bft) 96,30 %
12.03.2020 21:58 7,4 C 6,7 C 6,1 C 78 % 1012,1 hPa 0,0 l/m 0 min 0 min 0 W/m 12,9 km/h (3 Bft) 93,62 %
12.03.2020 22:00 7,3 C 6,7 C 6,1 C 78 % 1012,1 hPa 0,0 l/m 0 min 0 min 0 W/m 16,1 km/h (3 Bft) 95,65 %
12.03.2020 22:02 7,3 C 6,7 C 6,1 C 78 % 1012,0 hPa 0,0 l/m 0 min 0 min 0 W/m 9,7 km/h (2 Bft) 95,74 %
12.03.2020 22:04 7,3 C 6,7 C 6,1 C 78 % 1012,1 hPa 0,0 l/m 0 min 0 min 0 W/m 32,2 km/h (5 Bft) 93,62 %
12.03.2020 22:06 7,3 C 6,7 C 6,1 C 78 % 1012,0 hPa 0,0 l/m 0 min 0 min 0 W/m 12,9 km/h (3 Bft) 93,62 %
12.03.2020 22:08 7,3 C 6,1 C 6,1 C 78 % 1012,1 hPa 0,0 l/m 0 min 0 min 0 W/m 6,4 km/h (2 Bft) 91,89 %
12.03.2020 22:10 7,3 C 6,1 C 6,1 C 78 % 1012,1 hPa 0,0 l/m 0 min 0 min 0 W/m 22,5 km/h (4 Bft) 93,48 %
12.03.2020 22:12 7,2 C 6,7 C 6,1 C 78 % 1012,1 hPa 0,0 l/m 0 min 0 min 0 W/m 38,6 km/h (5 Bft) 95,83 %
12.03.2020 22:14 7,2 C 6,7 C 6,1 C 78 % 1012,1 hPa 0,0 l/m 0 min 0 min 0 W/m 25,7 km/h (4 Bft) 95,83 %
12.03.2020 22:16 7,2 C 6,7 C 6,1 C 78 % 1012,1 hPa 0,0 l/m 0 min 0 min 0 W/m 19,3 km/h (3 Bft) 91,49 %
12.03.2020 22:18 7,2 C 6,7 C 6,1 C 78 % 1012,1 hPa 0,0 l/m 0 min 0 min 0 W/m 22,5 km/h (4 Bft) 95,83 %
12.03.2020 22:20 7,2 C 6,7 C 6,1 C 78 % 1012,1 hPa 0,0 l/m 0 min 0 min 0 W/m 19,3 km/h (3 Bft) 93,62 %
12.03.2020 22:22 7,2 C 6,7 C 6,1 C 78 % 1012,2 hPa 0,0 l/m 0 min 0 min 0 W/m 25,7 km/h (4 Bft) 95,65 %
12.03.2020 22:24 7,2 C 6,7 C 6,1 C 78 % 1012,2 hPa 0,0 l/m 0 min 0 min 0 W/m 19,3 km/h (3 Bft) 95,83 %
12.03.2020 22:26 7,2 C 6,7 C 6,1 C 78 % 1012,2 hPa 0,0 l/m 0 min 0 min 0 W/m 16,1 km/h (3 Bft) 96,23 %
12.03.2020 22:28 7,2 C 6,7 C 6,1 C 78 % 1012,2 hPa 0,0 l/m 0 min 0 min 0 W/m 25,7 km/h (4 Bft) 100,00 %
12.03.2020 22:30 7,2 C 6,7 C 6,1 C 78 % 1012,2 hPa 0,0 l/m 0 min 0 min 0 W/m 29,0 km/h (5 Bft) 96,00 %
12.03.2020 22:32 7,2 C 6,7 C 6,1 C 78 % 1012,3 hPa 0,0 l/m 0 min 0 min 0 W/m 22,5 km/h (4 Bft) 95,65 %
12.03.2020 22:34 7,2 C 6,7 C 6,1 C 78 % 1012,2 hPa 0,0 l/m 0 min 0 min 0 W/m 16,1 km/h (3 Bft) 97,87 %
12.03.2020 22:36 7,2 C 6,1 C 6,1 C 78 % 1012,2 hPa 0,0 l/m 0 min 0 min 0 W/m 9,7 km/h (2 Bft) 97,92 %
12.03.2020 22:38 7,2 C 6,1 C 6,1 C 78 % 1012,2 hPa 0,0 l/m 0 min 0 min 0 W/m 0,0 km/h (0 Bft) 97,92 %
12.03.2020 22:40 7,2 C 6,1 C 6,1 C 79 % 1012,3 hPa 0,0 l/m 0 min 0 min 0 W/m 16,1 km/h (3 Bft) 97,87 %
12.03.2020 22:42 7,1 C 6,1 C 6,1 C 79 % 1012,3 hPa 0,0 l/m 0 min 0 min 0 W/m 32,2 km/h (5 Bft) 97,87 %
12.03.2020 22:44 7,1 C 6,1 C 5,6 C 79 % 1012,3 hPa 0,0 l/m 0 min 0 min 0 W/m 32,2 km/h (5 Bft) 97,87 %
12.03.2020 22:46 7,1 C 6,1 C 5,6 C 79 % 1012,4 hPa 0,0 l/m 0 min 0 min 0 W/m 16,1 km/h (3 Bft) 97,87 %
12.03.2020 22:48 7,1 C 6,1 C 5,6 C 80 % 1012,4 hPa 0,0 l/m 0 min 0 min 0 W/m 29,0 km/h (5 Bft) 97,87 %
12.03.2020 22:50 7,1 C 6,1 C 5,6 C 80 % 1012,5 hPa 0,0 l/m 0 min 0 min 0 W/m 32,2 km/h (5 Bft) 97,87 %
12.03.2020 22:52 7,0 C 6,1 C 5,6 C 80 % 1012,4 hPa 0,0 l/m 0 min 0 min 0 W/m 16,1 km/h (3 Bft) 97,87 %
12.03.2020 22:54 7,0 C 6,1 C 5,6 C 80 % 1012,7 hPa 0,0 l/m 0 min 0 min 0 W/m 22,5 km/h (4 Bft) 97,87 %
12.03.2020 22:56 6,9 C 6,1 C 5,6 C 80 % 1012,5 hPa 0,0 l/m 0 min 0 min 0 W/m 41,8 km/h (6 Bft) 95,74 %
12.03.2020 22:58 6,9 C 6,1 C 5,6 C 80 % 1012,6 hPa 0,0 l/m 0 min 0 min 0 W/m 32,2 km/h (5 Bft) 100,00 %
12.03.2020 23:00 6,9 C 6,1 C 5,6 C 80 % 1012,5 hPa 0,0 l/m 0 min 0 min 0 W/m 19,3 km/h (3 Bft) 93,48 %
12.03.2020 23:02 6,9 C 6,1 C 5,6 C 81 % 1012,5 hPa 0,0 l/m 0 min 0 min 0 W/m 19,3 km/h (3 Bft) 97,87 %
12.03.2020 23:04 6,8 C 6,1 C 5,6 C 81 % 1012,5 hPa 0,0 l/m 0 min 0 min 0 W/m 22,5 km/h (4 Bft) 97,87 %
12.03.2020 23:06 6,8 C 6,1 C 5,6 C 81 % 1012,5 hPa 0,0 l/m 0 min 0 min 0 W/m 25,7 km/h (4 Bft) 97,87 %
12.03.2020 23:08 6,8 C 5,6 C 5,6 C 81 % 1012,5 hPa 0,0 l/m 0 min 0 min 0 W/m 25,7 km/h (4 Bft) 97,50 %
12.03.2020 23:10 6,8 C 5,6 C 5,6 C 81 % 1012,4 hPa 0,0 l/m 0 min 0 min 0 W/m 19,3 km/h (3 Bft) 97,67 %
12.03.2020 23:12 6,7 C 5,6 C 5,6 C 81 % 1012,5 hPa 0,0 l/m 0 min 0 min 0 W/m 25,7 km/h (4 Bft) 97,87 %
12.03.2020 23:14 6,7 C 5,6 C 5,6 C 81 % 1012,4 hPa 0,0 l/m 0 min 0 min 0 W/m 25,7 km/h (4 Bft) 97,83 %
12.03.2020 23:16 6,7 C 5,6 C 5,0 C 81 % 1012,5 hPa 0,0 l/m 0 min 0 min 0 W/m 22,5 km/h (4 Bft) 95,74 %
12.03.2020 23:18 6,6 C 5,6 C 5,0 C 81 % 1012,5 hPa 0,0 l/m 0 min 0 min 0 W/m 16,1 km/h (3 Bft) 97,87 %
12.03.2020 23:20 6,6 C 5,6 C 5,0 C 81 % 1012,5 hPa 0,0 l/m 0 min 0 min 0 W/m 19,3 km/h (3 Bft) 97,87 %
12.03.2020 23:22 6,6 C 5,6 C 5,0 C 82 % 1012,6 hPa 0,0 l/m 0 min 0 min 0 W/m 9,7 km/h (2 Bft) 95,74 %
12.03.2020 23:24 6,5 C 5,6 C 5,0 C 82 % 1012,6 hPa 0,0 l/m 0 min 0 min 0 W/m 16,1 km/h (3 Bft) 97,56 %
12.03.2020 23:26 6,5 C 5,6 C 5,0 C 82 % 1012,6 hPa 0,0 l/m 0 min 0 min 0 W/m 6,4 km/h (2 Bft) 97,87 %
12.03.2020 23:28 6,5 C 5,6 C 5,0 C 82 % 1012,6 hPa 0,0 l/m 0 min 0 min 0 W/m 41,8 km/h (6 Bft) 97,87 %
12.03.2020 23:30 6,4 C 5,6 C 5,0 C 82 % 1012,7 hPa 0,0 l/m 0 min 0 min 0 W/m 25,7 km/h (4 Bft) 97,87 %
12.03.2020 23:32 6,4 C 5,6 C 5,0 C 82 % 1012,5 hPa 0,0 l/m 0 min 0 min 0 W/m 19,3 km/h (3 Bft) 97,87 %
12.03.2020 23:34 6,4 C 5,6 C 5,0 C 82 % 1012,6 hPa 0,0 l/m 0 min 0 min 0 W/m 25,7 km/h (4 Bft) 97,83 %
12.03.2020 23:36 6,4 C 5,6 C 5,0 C 82 % 1012,5 hPa 0,0 l/m 0 min 0 min 0 W/m 12,9 km/h (3 Bft) 95,74 %
12.03.2020 23:38 6,4 C 5,6 C 5,0 C 82 % 1012,5 hPa 0,0 l/m 0 min 0 min 0 W/m 6,4 km/h (2 Bft) 93,75 %
12.03.2020 23:40 6,4 C 5,6 C 5,0 C 83 % 1012,6 hPa 0,0 l/m 0 min 0 min 0 W/m 19,3 km/h (3 Bft) 97,87 %
12.03.2020 23:42 6,4 C 5,6 C 5,0 C 83 % 1012,5 hPa 0,0 l/m 0 min 0 min 0 W/m 22,5 km/h (4 Bft) 97,87 %
12.03.2020 23:44 6,4 C 5,6 C 5,0 C 82 % 1012,5 hPa 0,0 l/m 0 min 0 min 0 W/m 9,7 km/h (2 Bft) 97,87 %
12.03.2020 23:46 6,4 C 5,6 C 5,0 C 82 % 1012,5 hPa 0,0 l/m 0 min 0 min 0 W/m 19,3 km/h (3 Bft) 97,92 %
12.03.2020 23:48 6,3 C 5,6 C 5,0 C 82 % 1012,5 hPa 0,0 l/m 0 min 0 min 0 W/m 9,7 km/h (2 Bft) 97,87 %
12.03.2020 23:50 6,4 C 5,6 C 5,0 C 83 % 1012,5 hPa 0,0 l/m 0 min 0 min 0 W/m 12,9 km/h (3 Bft) 97,87 %
12.03.2020 23:52 6,4 C 5,6 C 5,0 C 83 % 1012,5 hPa 0,0 l/m 0 min 0 min 0 W/m 6,4 km/h (2 Bft) 97,87 %
12.03.2020 23:54 6,4 C 5,6 C 5,0 C 83 % 1012,5 hPa 0,0 l/m 0 min 0 min 0 W/m 9,7 km/h (2 Bft) 97,92 %
12.03.2020 23:56 6,4 C 5,6 C 5,0 C 83 % 1012,6 hPa 0,0 l/m 0 min 0 min 0 W/m 19,3 km/h (3 Bft) 97,83 %
12.03.2020 23:58 6,4 C 5,6 C 5,0 C 83 % 1012,6 hPa 0,0 l/m 0 min 0 min 0 W/m 22,5 km/h (4 Bft) 97,87 %
_ Min-Zeit 23:48 23:08 23:16 13:50 04:00 - - - - 18:02 09:50
Minimum _ 6,3 C 5,6 C 5,0 C 46 % 1005,7 hPa - - - - 0,0 km/h (0 Bft) 52,27 %
_ Max-Zeit 00:34 12:52 13:18 05:46 12:40 05:20 12:08 06:08 13:14 00:54 00:38
Maximum _ 13,6 C 18,3 C 18,3 C 91 % 1012,9 hPa 0,2 l/m 4 min 4 min 742 W/m 64,4 km/h
S (8 Bft)
100,00 %
Durchschnitt _ 10,5 C 10,8 C 9,3 C 74 % 1010,3 hPa #0,6 l/m #6:34 h #4:14 h 338 W/m 24,7 km/h (4 Bft) 97,28 %
© 2020 W. Hausmann